GEFSNGP_500_meanwind_132.txt.gz
Wind_Speed
15 15 15 16 16 17 19 21 21 21 22 23 22 23 24 24 25 24 24 25 26 25 26 26 27 28 28 28 28 28 28 27 27 26 26 26 26 25 25 24 24 24 24 23
13 13 14 15 15 16 18 19 20 20 21 23 24 24 24 23 24 24 23 23 24 25 25 25 26 27 27 27 28 27 27 27 26 25 25 25 25 24 24 23 23 24 22 22
10 11 12 12 13 14 16 19 21 22 22 22 23 24 23 23 24 24 24 24 23 24 24 25 27 26 26 27 27 27 27 26 26 25 25 25 25 24 24 23 23 22 21 21
7 8 10 10 12 14 14 16 19 21 22 22 22 23 23 23 23 23 23 23 24 24 24 25 25 25 25 25 25 25 24 25 25 25 24 24 23 23 23 22 21 20 19 19
7 7 8 8 10 12 14 16 18 19 20 21 21 21 23 23 23 22 22 22 22 23 23 24 24 24 24 24 23 22 22 21 22 22 22 21 21 20 19 19 19 18 17 17
7 7 9 9 10 11 13 15 16 18 18 19 21 21 21 21 21 22 21 21 20 21 21 22 22 23 22 21 20 20 20 20 19 18 18 18 17 16 16 16 16 16 15 15
6 7 8 9 10 12 13 14 15 16 17 17 18 19 19 19 19 19 20 19 19 19 19 20 21 21 21 20 19 19 18 18 17 16 16 15 14 14 13 13 14 13 13 13
6 7 8 9 10 11 13 14 15 15 16 17 17 17 17 17 17 17 17 17 18 17 18 18 18 18 17 17 17 16 15 15 14 14 13 12 12 11 11 11 11 10 10 10
6 7 8 9 11 11 12 13 14 14 15 15 16 16 15 14 15 15 16 16 16 16 16 16 16 15 14 14 14 14 14 13 12 11 10 10 9 9 9 8 8 7 7 7
7 8 9 10 11 11 12 13 13 13 13 14 15 14 14 14 14 14 14 14 14 14 15 14 13 12 12 12 12 11 11 11 10 9 8 8 8 8 7 6 5 4 4 4
7 8 9 10 11 12 12 13 13 13 13 13 13 12 12 12 12 12 12 11 11 11 12 11 11 10 10 10 10 10 9 9 8 7 6 5 5 4 4 4 3 2 2 2
7 8 8 9 10 11 12 12 12 12 12 12 12 11 10 10 10 10 10 9 9 9 9 9 8 8 8 8 8 7 7 6 5 4 3 2 2 2 1 0 0 1 2 2
7 7 8 9 10 10 11 11 11 11 11 11 11 11 10 9 9 9 9 8 8 8 7 7 7 6 7 7 6 5 5 4 3 2 1 1 1 1 2 2 2 2 3 4
6 7 7 8 8 9 10 10 10 10 10 10 11 10 9 8 9 8 8 8 7 7 7 7 6 6 6 6 6 5 4 3 3 3 3 3 3 3 3 3 4 5 6 7
6 6 7 7 8 9 9 10 10 10 10 10 10 9 9 8 8 8 8 8 8 7 7 7 7 7 6 6 5 5 4 4 4 4 4 4 4 4 5 6 6 8 9 9
5 5 6 7 7 8 8 9 9 10 10 9 9 9 8 8 8 8 8 8 8 8 8 8 8 8 7 7 6 5 5 5 5 5 5 5 6 6 7 8 8 9 9 9
4 5 6 6 6 7 7 8 9 9 10 10 9 9 8 8 8 8 8 8 8 9 9 9 9 9 8 8 7 7 7 7 7 7 7 7 7 7 8 9 9 9 9 9
4 4 4 5 6 6 7 8 8 9 10 10 10 9 8 8 8 9 9 9 9 9 9 10 10 9 9 9 9 9 9 9 9 9 9 8 8 8 9 9 9 9 10 9
3 3 3 4 5 6 6 7 8 9 10 9 9 9 9 8 8 8 9 9 9 9 9 10 10 10 10 10 10 10 10 10 10 10 9 9 9 9 9 10 10 10 10 9
2 2 3 3 4 6 6 7 8 9 9 9 8 8 8 8 8 8 8 8 8 8 9 9 10 10 11 11 10 10 10 10 10 10 10 10 10 10 10 9 9 9 9 8
2 1 2 3 4 5 6 7 8 8 8 9 9 8 8 8 8 8 8 8 8 8 8 8 9 9 9 9 9 9 9 9 9 9 9 9 8 8 8 8 8 8 7 7
2 1 1 2 3 4 5 6 7 7 8 8 8 8 8 8 8 8 8 7 7 7 7 7 7 8 8 8 8 7 7 7 7 7 7 7 7 7 7 7 6 6 6 5
3 2 1 1 2 3 4 5 6 6 7 7 7 8 8 8 8 8 8 8 7 7 7 6 7 7 7 6 6 6 6 6 6 5 5 5 5 5 4 4 4 3 3 3
3 2 1 1 1 2 3 4 5 5 6 6 6 7 8 8 8 8 7 7 7 7 7 7 6 6 5 5 4 4 4 4 4 4 3 3 2 2 2 1 1 1 2 2
3 2 1 1 1 2 3 3 4 4 4 5 5 6 6 6 7 7 7 6 6 6 7 7 6 6 6 5 4 3 3 3 2 2 2 2 1 1 1 2 2 2 3 4
4 3 2 2 2 2 3 3 3 3 4 4 4 5 5 6 5 5 5 5 6 6 6 6 6 6 6 5 4 4 3 3 4 4 3 3 4 4 4 5 5 6 6 7
5 5 4 4 4 4 4 4 4 4 4 4 5 5 5 6 5 5 5 5 5 6 6 6 6 6 7 6 6 5 5 5 6 6 6 7 7 7 8 8 8 9 9 10

GEFSNGP_500_meanwind_138.txt.gz
Wind_Speed
12 13 13 14 15 16 17 20 20 20 19 19 20 20 20 21 21 20 19 20 19 19 20 21 22 22 23 23 24 24 25 25 25 24 23 23 23 22 21 20 20 20 20 21
12 11 11 11 12 13 15 17 18 18 18 19 20 20 21 22 23 22 21 21 20 20 21 21 21 22 22 23 23 23 23 23 23 23 22 22 21 21 21 21 21 21 20 20
11 11 10 11 11 12 13 15 16 17 17 18 19 20 20 21 21 20 20 20 20 20 20 20 21 22 21 21 21 21 22 21 22 22 21 20 21 21 21 20 20 20 20 20
11 11 10 10 11 11 11 12 13 14 15 16 18 19 19 20 21 20 20 20 19 19 20 20 21 20 19 19 19 19 19 20 20 20 19 19 19 19 19 19 19 19 19 19
11 10 9 9 10 10 11 11 12 13 14 15 16 17 18 19 19 18 19 18 18 18 18 19 19 19 19 18 18 18 18 18 18 18 17 17 17 16 16 17 17 17 16 16
10 9 9 9 10 10 11 11 12 12 13 14 15 16 16 17 17 17 17 17 17 16 16 17 18 18 18 18 18 17 17 17 17 16 16 15 14 14 14 14 13 13 13 12
9 9 9 10 10 11 12 12 12 13 14 14 14 15 16 17 17 16 15 15 14 14 15 15 16 16 16 16 16 15 14 14 14 13 13 12 12 13 12 11 10 10 9 9
9 10 9 9 10 11 12 13 13 13 14 14 14 15 15 15 15 13 12 12 12 13 13 14 14 15 15 15 14 13 12 12 11 11 11 10 11 10 10 9 8 7 7 7
8 9 9 10 11 12 12 13 13 13 14 14 14 14 14 13 12 11 10 10 11 12 12 12 12 13 13 13 12 11 11 10 9 9 9 9 8 8 7 7 7 7 6 6
7 8 9 10 11 12 12 13 13 13 13 13 13 13 12 11 11 10 9 9 10 10 11 11 10 11 11 10 10 9 9 9 8 8 8 7 6 5 5 6 6 6 5 5
7 8 9 10 10 11 12 12 12 12 12 12 12 11 11 10 10 9 9 9 9 9 9 9 9 9 9 9 9 8 7 7 6 6 5 5 4 3 3 4 4 4 4 5
7 8 9 9 9 10 11 12 12 12 12 12 11 11 10 9 9 8 8 8 8 8 8 8 8 8 9 8 7 7 6 5 5 5 4 3 3 3 3 2 1 2 3 4
6 7 8 9 9 10 10 11 10 10 10 11 11 10 9 9 8 7 7 7 8 8 8 8 8 8 7 8 7 7 6 6 5 4 3 3 2 2 1 0 1 2 3 3
6 6 7 8 8 9 9 10 10 10 10 10 10 10 8 8 8 7 7 7 7 7 8 8 8 8 7 7 7 7 6 6 5 4 3 3 2 2 2 3 4 5 5 5
5 6 6 7 7 7 8 9 9 9 9 9 10 9 8 8 7 7 8 8 7 7 7 8 8 8 7 8 8 7 6 6 5 5 4 4 4 4 4 5 6 6 5 5
4 4 5 6 7 7 7 8 8 9 9 9 9 9 9 8 7 8 8 8 8 7 7 7 7 7 8 8 9 8 8 7 7 6 6 5 5 5 6 6 6 6 6 7
3 3 4 5 6 6 7 7 8 8 8 9 9 9 9 8 8 8 8 9 9 8 8 7 8 8 8 9 9 10 9 9 8 8 7 6 6 6 6 7 7 7 8 8
3 2 3 4 5 6 6 7 8 8 8 8 8 9 9 9 8 8 9 9 9 10 10 9 9 9 9 9 10 10 10 10 9 9 8 8 7 7 7 7 7 7 7 7
3 2 2 3 4 5 6 7 7 8 8 9 8 8 8 8 8 8 8 9 9 9 9 9 9 9 9 9 10 10 10 10 10 9 9 9 8 7 7 7 7 6 6 6
3 2 1 2 3 4 5 6 7 7 8 8 8 9 9 9 9 9 9 9 9 9 9 8 8 8 8 9 9 9 9 9 9 8 8 8 7 7 6 6 6 5 5 5
4 3 2 1 2 3 5 6 7 7 7 8 8 8 9 9 9 9 9 9 9 9 8 8 8 8 7 7 8 8 8 8 8 7 7 7 6 6 6 5 5 4 4 4
5 4 2 1 1 2 3 5 6 7 7 7 7 8 8 9 9 9 9 9 9 9 8 8 8 8 7 7 7 7 6 6 6 6 6 5 5 4 4 3 3 2 2 2
5 4 3 1 1 1 3 3 5 6 6 7 7 7 7 7 7 8 8 8 8 8 8 8 8 8 8 8 7 6 5 5 5 4 4 4 4 3 3 3 2 1 1 1
6 5 3 2 1 1 2 3 4 5 5 5 6 6 6 6 6 6 7 7 7 7 7 7 7 7 7 8 8 7 6 5 5 4 4 4 4 3 3 3 3 3 3 4
6 5 4 3 2 1 1 2 3 3 4 4 5 5 6 6 6 5 5 5 6 6 6 7 7 7 7 8 7 7 7 6 5 5 5 4 5 5 6 6 6 7 7 7
6 5 5 4 3 3 1 1 1 3 4 4 4 5 5 5 6 6 5 5 5 5 6 6 6 7 7 7 8 8 8 8 7 7 7 7 8 8 8 9 9 10 10 10
7 6 5 5 4 3 2 1 1 2 3 4 5 5 5 5 6 6 7 6 6 6 7 7 7 8 8 8 9 9 9 10 10 10 10 10 10 10 11 11 12 12 12 12

GEFSNGP_500_meanwind_144.txt.gz
Wind_Speed
17 17 16 16 16 16 17 18 19 19 19 19 19 19 19 19 20 19 20 20 20 21 21 21 21 20 21 22 22 22 23 24 23 23 23 23 23 24 23 23 22 22 21 21
17 17 17 17 16 17 18 18 18 19 19 19 18 18 17 18 18 19 20 19 19 19 19 20 20 20 21 22 22 22 22 23 23 23 23 23 23 23 22 22 21 21 21 21
17 17 17 17 16 17 17 17 18 19 18 17 17 17 17 17 17 18 18 18 18 18 19 20 20 21 21 22 22 21 21 22 21 21 22 22 22 21 21 20 20 20 21 21
17 17 18 16 15 15 16 16 16 17 17 16 15 15 16 16 16 16 17 17 18 19 19 19 20 20 20 21 21 20 19 19 19 19 19 20 19 19 20 20 20 20 19 19
16 16 16 15 14 14 15 15 16 16 15 15 14 14 15 15 15 15 16 16 17 17 17 17 17 17 18 18 18 18 18 17 17 18 17 17 18 18 18 18 18 18 18 17
15 16 15 14 14 15 15 15 15 14 14 13 13 14 14 15 15 15 15 15 16 16 15 15 16 16 17 17 17 17 17 17 16 16 15 15 15 16 16 16 17 17 16 15
14 15 14 14 14 14 14 14 14 14 14 14 14 14 14 14 14 14 14 14 13 13 14 14 15 15 15 15 15 15 15 15 15 14 14 14 14 14 14 14 14 14 13 12
13 13 13 13 13 13 14 14 14 14 13 13 14 14 13 13 13 12 11 11 12 13 13 13 13 13 12 12 12 12 12 13 12 12 12 12 11 11 12 11 11 10 10 10
11 11 12 12 12 12 13 13 14 13 13 13 13 12 12 11 10 9 9 9 10 11 11 11 10 10 10 10 9 9 10 9 9 10 9 10 9 10 10 9 9 8 8 8
11 11 11 11 11 11 12 12 12 12 12 12 11 10 10 8 8 7 7 8 8 9 9 9 8 8 9 8 8 8 8 8 8 8 8 8 8 8 8 8 8 8 7 7
10 10 10 11 11 10 10 11 11 11 11 11 10 9 8 7 7 6 7 7 8 8 8 8 7 8 7 8 8 7 7 7 8 8 7 7 7 7 7 7 6 6 6 6
9 9 9 9 9 9 10 10 11 11 11 10 8 7 7 6 6 6 6 6 7 7 7 6 6 7 7 7 7 7 6 6 7 7 7 7 7 7 6 6 5 5 5 4
9 8 8 8 8 9 9 10 11 11 11 9 7 6 5 5 5 5 5 6 6 6 5 5 6 7 6 6 6 7 6 6 7 6 6 7 6 6 5 5 4 4 4 3
8 8 8 7 8 8 8 9 9 10 10 8 6 5 5 4 4 4 4 5 5 5 5 5 6 6 7 6 7 7 7 7 7 7 7 7 6 6 5 5 4 4 4 3
8 7 7 6 6 7 7 7 7 8 8 7 5 4 5 5 5 4 4 4 5 5 5 5 6 6 6 7 7 7 7 7 7 7 7 7 7 7 6 6 5 5 4 3
9 7 6 6 5 5 6 6 6 7 7 7 6 5 5 5 5 5 5 5 5 5 5 6 6 6 6 7 7 7 7 7 8 7 8 8 8 8 7 7 6 5 4 4
9 7 6 5 4 4 4 5 5 6 6 7 7 6 6 6 6 6 6 6 6 6 6 6 7 6 7 7 7 8 8 8 8 8 8 9 8 8 8 8 7 6 5 4
9 8 6 4 2 2 3 3 4 5 5 6 6 7 7 7 6 6 6 6 7 7 7 7 7 7 7 7 8 8 8 8 8 8 8 9 9 8 7 7 7 6 6 5
9 8 6 4 2 1 2 2 3 4 4 5 6 6 6 7 7 7 7 6 6 7 7 8 8 8 8 8 8 8 8 8 8 9 9 9 8 8 7 7 7 6 6 5
10 9 7 5 3 2 0 1 2 3 4 4 5 6 6 6 7 7 8 7 7 7 7 7 7 8 8 8 8 8 8 8 8 9 9 9 8 8 7 7 6 6 5 5
11 9 8 7 5 3 1 1 2 3 4 4 4 5 5 6 6 7 7 7 7 7 7 7 7 7 8 8 8 8 8 8 8 8 8 8 8 8 7 6 6 6 6 6
11 10 9 7 6 4 3 2 2 3 3 4 4 5 5 6 6 6 6 6 6 6 6 6 7 7 7 8 8 8 8 8 8 8 8 8 8 8 7 7 7 7 7 7
12 11 10 8 7 5 4 2 2 2 3 3 4 4 4 5 5 5 6 6 6 6 6 6 6 6 7 7 7 8 8 8 8 9 8 8 8 8 9 9 9 8 8 8
13 12 11 9 8 6 4 3 2 2 2 3 3 3 4 4 4 5 5 6 6 7 7 7 6 7 7 7 8 8 8 9 9 9 9 9 9 9 10 10 10 10 10 10
13 13 11 10 9 7 5 4 3 2 1 2 2 3 3 4 4 4 5 5 6 6 7 7 7 8 8 8 8 9 9 10 10 10 10 10 11 11 11 12 12 12 13 13
14 12 11 11 9 8 6 5 3 2 0 1 1 2 3 3 4 4 5 5 6 6 7 8 8 9 9 9 10 10 11 11 11 12 12 12 13 13 13 14 14 15 15 15
13 12 11 10 9 8 7 5 3 2 1 1 1 2 3 3 4 4 5 5 6 7 8 8 9 10 10 11 11 12 12 13 13 14 14 14 15 15 15 16 16 17 17 18

GEFSNGP_500_meanwind_150.txt.gz
Wind_Speed
19 19 20 19 19 19 19 18 18 17 18 18 17 18 18 17 17 16 16 17 17 18 19 19 19 20 21 20 21 20 21 21 22 22 23 24 24 24 24 23 23 23 23 22
20 20 20 19 19 18 18 17 17 17 18 18 18 17 17 17 17 17 17 17 17 18 18 18 18 18 18 19 18 18 19 19 20 20 21 22 22 22 22 22 22 22 22 22
20 19 19 19 18 18 17 17 17 17 17 17 17 16 16 16 17 17 18 17 17 18 17 17 17 17 16 16 17 17 17 18 18 18 19 19 20 20 20 21 21 21 22 21
19 19 19 18 18 17 17 17 17 17 16 16 17 17 17 16 17 17 17 17 17 16 15 15 15 15 15 15 15 15 16 17 17 17 17 17 18 18 19 19 20 19 19 20
18 19 19 18 17 17 17 16 16 16 16 16 16 17 16 16 16 16 16 16 15 14 14 14 14 14 14 14 14 15 16 16 16 16 16 16 17 16 17 17 17 17 17 17
19 19 19 18 16 16 16 15 15 15 15 15 15 16 16 16 15 15 14 14 14 14 13 13 13 13 13 13 13 13 14 14 14 13 14 14 15 15 14 14 14 14 14 14
18 18 18 16 15 15 15 15 14 15 15 16 16 16 16 15 14 13 13 12 12 12 12 12 12 12 12 12 12 12 12 12 12 12 12 12 13 13 12 12 12 13 12 12
18 17 16 15 14 14 14 14 14 14 15 15 16 15 14 13 12 11 11 11 11 11 11 11 11 10 10 9 9 9 9 10 10 10 11 11 11 11 11 10 10 10 10 11
17 16 15 14 14 14 14 13 13 13 14 15 15 13 12 11 10 10 10 10 10 10 9 9 9 9 8 7 7 8 8 8 9 9 10 10 10 10 10 9 9 9 9 9
17 15 14 13 13 13 13 12 12 12 13 13 12 11 10 9 10 10 9 9 9 8 8 8 8 9 7 7 7 7 7 7 7 7 8 8 8 8 8 8 8 7 7 7
17 15 14 13 12 12 12 12 11 12 11 11 10 9 8 8 9 9 9 8 8 7 7 7 8 7 6 6 6 6 6 7 7 7 8 8 8 8 7 7 7 7 6 6
16 15 13 12 11 10 10 10 10 10 9 9 8 7 7 7 7 7 6 6 5 5 6 6 5 5 5 6 6 6 6 6 6 7 7 7 7 7 7 7 6 6 5 4
17 15 14 12 11 10 9 9 9 8 7 7 7 6 5 5 5 4 4 4 4 4 5 5 4 4 5 5 6 6 6 6 6 7 7 7 7 7 7 7 7 7 5 4
17 16 13 12 10 9 8 8 7 7 7 6 5 4 4 4 3 3 2 2 2 3 4 4 4 4 5 5 6 6 6 6 7 7 7 7 7 7 7 7 7 7 6 5
17 15 13 11 10 8 8 7 6 6 5 4 3 3 2 2 2 1 1 2 2 3 4 4 4 5 5 5 5 6 7 7 6 6 6 7 7 7 7 7 7 7 7 6
16 13 11 10 9 8 7 6 5 5 4 3 2 1 1 1 1 1 1 1 2 3 3 3 4 5 5 5 6 6 6 6 6 6 6 7 7 7 7 7 7 7 7 7
15 13 11 10 9 7 6 5 4 3 2 1 1 1 1 1 1 1 1 2 2 2 3 3 3 4 4 5 5 6 6 7 6 6 6 6 7 7 7 7 7 8 7 7
15 13 11 10 8 7 5 4 4 3 2 1 1 1 1 1 1 1 1 2 2 2 3 3 3 4 4 5 5 6 6 7 7 7 7 7 7 8 8 8 8 8 7 7
15 13 12 10 8 7 6 5 4 3 2 2 2 2 2 1 1 1 1 1 2 2 3 3 3 4 4 5 5 5 6 7 7 7 7 7 8 8 9 9 8 8 8 8
16 14 13 12 10 8 7 6 5 4 3 3 2 2 2 3 2 2 2 2 2 3 3 3 4 4 5 5 5 5 6 7 7 7 7 7 8 8 8 8 8 8 8 9
16 15 14 13 11 10 8 7 6 5 4 4 3 3 3 4 3 3 3 3 3 3 3 3 4 4 5 6 6 6 6 7 7 7 7 8 8 9 8 9 9 9 9 10
17 16 14 13 12 11 10 9 8 6 5 5 4 3 2 2 3 3 3 3 4 4 4 5 5 5 5 6 6 7 7 7 8 8 8 8 8 9 9 10 10 10 11 11
17 16 15 13 13 12 12 10 9 8 6 6 4 3 2 2 2 2 3 3 3 4 4 5 5 6 6 6 7 7 7 8 8 8 9 9 10 10 10 11 11 11 12 12
18 17 15 14 13 12 12 11 10 8 7 6 5 3 3 2 2 2 2 3 3 4 4 5 6 6 6 7 7 8 8 8 9 9 10 10 11 11 11 12 12 12 13 13
19 18 16 14 14 13 12 11 10 8 7 6 5 4 3 2 1 1 2 3 3 4 4 5 6 6 6 7 8 8 9 9 10 10 11 11 12 12 12 12 13 13 13 14
20 18 16 15 14 13 12 11 10 9 7 6 5 4 3 2 1 1 1 2 3 3 4 5 6 7 7 8 9 9 10 11 12 12 13 13 13 14 14 14 15 15 16 16
20 18 16 15 15 14 13 11 10 9 8 6 5 4 3 2 1 1 1 2 3 4 5 6 7 8 8 9 10 11 12 13 13 14 14 15 15 15 15 16 16 17 18 18

GEFSNGP_500_meanwind_156.txt.gz
Wind_Speed
23 22 23 23 23 23 23 24 26 26 27 27 28 27 25 24 24 24 24 23 22 22 21 20 19 20 20 20 21 21 22 22 22 22 21 21 21 21 21 21 22 22 22 22
24 23 24 24 24 23 24 24 26 27 27 26 26 26 25 25 24 23 22 21 20 20 20 19 19 20 20 20 20 20 21 20 20 20 19 19 19 20 20 21 21 21 22 22
26 24 25 25 24 25 23 24 25 25 26 26 25 24 24 25 24 21 20 19 19 19 19 18 18 19 20 20 20 19 18 18 17 17 18 18 18 19 19 19 19 20 20 21
27 25 26 25 24 25 23 23 24 24 25 24 24 24 23 23 23 22 20 19 19 19 18 18 18 18 18 18 18 17 17 16 15 16 16 17 17 17 17 17 18 18 19 18
27 27 26 25 24 23 23 23 23 23 23 23 23 24 23 22 21 20 19 18 18 18 17 17 17 17 17 17 16 16 16 15 14 14 14 14 14 14 15 15 15 16 16 16
26 26 26 24 23 23 23 23 22 22 22 22 22 23 21 20 19 18 17 17 17 16 16 16 16 15 15 15 14 14 14 13 12 12 12 12 13 13 13 13 14 14 14 14
26 26 26 23 23 23 23 23 23 22 22 22 22 22 20 19 17 16 15 15 15 15 15 14 14 14 14 14 13 13 13 12 12 12 11 12 12 12 12 12 12 13 13 12
26 26 24 23 24 23 21 21 22 21 21 21 20 20 17 16 15 14 13 14 13 13 13 13 12 12 12 12 12 12 12 11 11 11 10 11 11 11 11 11 12 12 11 11
26 25 25 24 23 22 21 21 20 20 20 19 19 17 15 14 14 13 13 12 12 12 12 11 11 11 11 11 10 10 11 10 9 9 9 9 10 10 10 11 11 11 11 11
26 26 25 24 21 20 20 20 18 18 18 17 16 15 14 13 12 12 12 11 11 11 11 11 11 10 10 10 10 10 10 8 8 8 8 9 9 10 10 10 11 11 11 11
26 26 25 23 20 19 20 19 18 17 16 16 15 13 13 12 11 10 10 10 10 10 10 10 10 9 8 8 8 8 8 7 8 8 8 9 10 11 11 11 12 11 12 12
25 24 24 22 19 18 18 17 17 16 15 14 13 12 11 10 10 10 9 8 8 9 9 9 8 7 7 7 8 8 8 7 8 9 9 10 10 11 12 12 12 12 12 12
23 23 22 21 19 17 16 15 15 14 13 12 11 10 9 9 9 8 7 7 8 8 8 7 6 5 5 6 7 8 8 8 9 9 9 10 11 11 11 11 12 12 12 12
21 20 19 18 17 15 14 13 13 12 11 11 9 8 8 7 7 7 7 7 7 7 7 6 5 5 5 5 6 7 7 8 8 9 9 10 10 10 10 10 11 12 12 12
19 18 17 17 16 14 13 13 12 10 9 8 8 7 6 6 6 6 7 6 6 6 6 5 4 4 5 5 6 6 7 8 8 8 9 10 10 11 11 10 11 11 11 12
18 17 16 16 15 14 13 12 10 9 8 8 7 6 5 4 5 5 5 5 5 5 4 4 4 4 5 5 6 6 7 7 8 9 9 10 11 11 11 10 11 11 11 12
18 17 15 14 13 13 12 11 9 8 7 7 6 5 5 4 4 4 4 4 4 3 3 3 3 4 5 6 6 6 7 8 8 9 10 11 11 11 11 11 11 11 11 12
17 15 13 13 13 12 11 10 8 7 6 6 5 4 4 3 2 3 3 3 3 3 3 3 3 4 5 5 6 6 7 8 9 9 10 11 11 11 11 12 12 12 12 12
17 15 14 14 13 12 11 9 8 8 6 6 4 3 2 2 1 1 2 2 2 2 3 4 4 4 4 5 5 6 8 9 9 9 10 11 11 12 12 13 13 13 13 13
17 15 14 14 14 12 11 10 9 8 7 6 5 4 3 2 1 0 1 2 3 3 3 3 4 5 5 5 6 7 8 9 10 10 11 11 12 13 13 14 14 14 14 14
18 16 15 15 14 12 11 11 9 9 8 7 6 5 3 2 2 1 1 2 3 3 3 4 4 5 5 6 7 8 9 9 10 11 11 12 13 13 14 14 14 15 15 15
17 16 16 16 14 13 13 12 10 9 9 8 7 5 3 2 1 0 0 2 3 3 3 4 5 5 6 7 7 8 9 10 10 11 11 12 13 13 13 14 15 15 15 16
17 16 16 16 15 14 13 12 10 9 8 8 7 6 4 3 1 0 1 2 2 3 4 5 5 6 6 7 8 9 9 9 10 11 11 12 13 13 14 14 15 15 16 16
18 17 16 16 14 14 14 12 11 10 9 8 7 6 5 3 2 0 1 2 2 3 4 5 6 6 7 7 8 8 9 10 11 12 12 13 14 14 15 15 16 17 17 18
19 17 17 16 15 14 13 12 11 10 9 8 7 6 5 4 2 0 1 2 2 3 4 5 6 7 7 8 8 9 10 11 12 13 14 14 15 15 15 16 17 18 19 19
20 18 18 17 16 14 13 12 11 10 9 8 8 7 5 3 2 1 1 2 3 4 5 6 7 7 8 8 9 10 11 12 13 14 15 15 16 17 18 18 19 20 20 21
20 19 18 17 16 15 14 13 12 10 9 8 7 6 5 3 2 1 0 2 3 4 5 6 7 7 8 9 10 11 12 13 14 15 16 17 17 18 19 20 20 21 22 23

GEFSNGP_500_meanwind_162.txt.gz
Wind_Speed
28 27 27 26 25 26 26 27 28 27 27 27 26 26 26 26 26 26 25 23 22 21 20 20 20 19 20 19 18 18 18 19 20 18 17 17 18 18 18 18 18 18 18 18
28 27 27 26 25 26 26 26 27 25 25 25 25 24 24 25 25 24 23 22 20 19 18 18 17 17 18 18 17 18 18 19 19 18 17 17 17 17 17 16 16 16 17 17
29 28 28 27 25 25 25 25 24 24 23 23 24 23 23 23 24 23 21 21 19 17 16 16 16 16 17 17 17 17 18 18 18 17 16 15 15 15 14 13 14 14 14 14
30 29 29 27 24 24 24 23 23 22 22 22 22 21 22 23 23 21 20 19 17 16 16 16 15 16 16 17 16 16 17 17 16 15 13 13 13 13 12 12 13 12 13 14
30 30 29 26 23 23 24 23 23 23 22 21 21 21 21 21 21 20 18 17 16 15 15 15 15 15 16 16 15 15 15 15 14 13 12 12 12 11 10 10 11 11 12 13
29 29 27 25 24 24 25 24 23 22 22 21 20 20 20 19 18 17 16 15 15 14 14 14 13 13 14 14 13 13 13 13 13 12 11 11 10 9 9 9 10 11 12 13
28 28 26 25 24 25 25 24 22 21 20 18 18 18 17 16 16 15 14 14 14 13 13 12 12 13 12 12 12 12 11 12 11 11 11 10 10 9 9 9 10 11 12 12
27 27 26 24 24 24 24 23 21 20 19 17 16 16 15 15 15 14 13 13 13 12 12 11 11 11 11 11 12 12 11 11 10 9 10 10 10 10 10 10 10 10 10 11
28 27 26 24 23 22 22 22 20 19 18 15 15 14 14 13 13 13 13 12 12 12 11 10 10 10 10 10 11 10 9 9 9 9 9 9 9 9 9 9 9 10 10 11
28 26 25 24 23 22 22 22 21 19 17 14 13 13 13 12 12 12 11 10 10 10 9 9 9 9 8 9 9 8 8 8 9 9 8 9 9 9 9 9 10 10 11 12
26 24 23 22 22 21 20 19 18 17 15 12 11 11 10 10 10 9 8 8 8 8 8 8 7 7 6 7 7 8 7 7 8 9 9 9 9 9 9 10 10 10 11 12
25 24 23 21 19 18 17 17 17 16 13 11 11 10 9 8 8 7 6 5 6 7 7 6 5 5 5 6 6 7 7 8 8 8 8 8 8 9 9 10 10 11 12 12
24 23 22 19 17 16 15 15 14 13 12 11 10 9 8 7 6 5 4 4 5 5 5 5 5 5 5 6 6 6 7 7 8 8 7 8 9 9 10 10 11 12 12 12
22 21 20 18 16 13 11 12 12 11 9 9 8 8 7 6 5 4 3 3 4 4 4 4 4 5 4 5 5 6 6 7 7 8 8 8 9 9 10 10 11 12 13 13
20 19 17 15 13 10 9 9 10 9 7 8 7 7 7 5 4 4 4 3 3 3 3 3 4 4 4 4 5 6 6 6 7 8 8 8 8 9 10 11 11 12 13 13
18 15 15 14 12 9 8 8 8 8 7 6 7 7 6 5 4 4 3 2 2 2 2 2 3 3 4 5 5 6 6 6 7 7 8 9 9 10 11 11 12 12 13 13
16 14 13 12 10 9 8 9 9 8 7 7 7 7 6 5 4 3 3 3 2 1 1 2 2 3 4 4 5 6 6 7 7 8 9 9 10 11 11 12 12 13 13 14
14 13 13 12 11 9 8 8 8 8 7 7 7 6 6 5 4 4 4 3 2 1 1 1 1 2 3 3 5 5 6 7 8 9 9 9 10 11 11 12 13 14 14 14
15 14 13 12 11 10 8 8 8 8 8 8 6 5 5 5 5 4 4 3 2 1 1 0 1 2 2 4 5 6 7 8 8 9 10 10 11 11 11 11 13 15 15 15
15 14 13 12 11 10 10 10 10 9 8 9 7 5 5 4 4 4 4 3 2 1 1 1 1 2 3 4 5 6 7 8 9 9 10 10 11 12 12 12 14 15 15 16
15 14 12 11 10 10 11 11 11 10 10 9 8 6 6 5 4 4 4 3 2 1 1 2 2 3 4 5 6 7 8 8 9 10 10 11 11 12 13 13 15 16 16 17
14 14 12 11 11 11 11 11 11 11 10 9 8 7 6 5 4 4 4 3 2 2 1 1 3 4 5 5 6 7 8 8 9 10 11 11 12 13 14 14 15 17 17 18
15 13 12 11 12 12 12 12 12 12 11 9 8 7 6 6 5 5 4 3 2 2 1 1 3 4 5 6 7 7 8 8 9 10 11 12 13 14 15 15 16 17 18 18
14 13 12 12 13 13 13 13 13 12 11 9 8 7 7 6 6 4 3 3 2 1 0 1 3 3 4 6 7 8 9 9 10 11 12 12 13 14 16 17 17 18 19 20
15 13 13 13 14 15 15 14 14 12 11 10 9 8 8 7 6 5 3 3 2 1 1 1 2 3 4 6 7 8 9 10 11 12 13 13 14 15 17 18 19 20 21 22
15 15 15 15 15 16 16 15 14 13 12 11 10 9 8 7 6 4 4 3 1 2 1 1 2 3 4 6 7 8 9 10 12 13 14 15 16 17 18 20 20 21 21 22
17 17 17 17 16 16 17 16 15 14 13 12 10 9 8 7 5 4 3 2 1 1 0 1 2 4 5 7 8 8 10 11 12 14 15 16 17 18 19 20 21 21 22 23

GEFSNGP_500_meanwind_168.txt.gz
Wind_Speed
32 33 33 33 32 31 31 31 32 31 30 29 28 28 27 26 25 25 24 24 23 23 22 21 21 22 23 21 20 18 18 17 16 16 16 17 17 16 16 15 15 15 16 16
32 32 32 32 31 31 31 30 30 30 29 28 28 27 26 25 24 24 23 22 22 22 21 20 20 20 21 21 19 18 18 17 16 16 16 15 15 15 15 14 14 14 15 15
33 33 33 33 31 30 30 30 29 29 28 27 26 25 25 24 23 23 21 21 21 21 20 19 19 19 20 19 18 18 18 17 16 16 15 14 14 14 14 13 14 14 14 14
33 32 32 32 30 28 28 27 27 27 27 26 25 24 23 23 22 21 20 20 20 19 19 18 18 18 17 17 17 17 16 16 15 14 14 14 14 13 14 14 14 14 14 13
32 32 32 30 28 27 26 25 26 26 25 25 24 23 22 21 20 20 19 18 19 18 18 18 17 17 16 16 16 15 15 14 14 13 12 12 12 12 12 12 12 12 12 12
31 31 31 30 28 27 26 25 25 25 25 25 23 23 21 20 18 17 17 17 17 17 17 16 16 16 16 15 15 14 14 13 13 12 12 12 11 11 12 11 11 12 12 11
30 30 29 29 27 25 24 23 23 24 23 22 21 20 20 19 18 16 16 16 17 17 16 15 15 15 15 14 13 13 13 12 12 11 11 11 11 11 11 11 11 11 11 12
30 29 28 27 26 25 24 24 23 22 22 21 20 19 19 18 17 16 15 15 15 15 14 14 13 13 13 12 12 11 11 10 10 10 10 10 11 11 10 11 11 11 11 12
30 29 27 26 25 24 23 23 22 21 20 19 18 18 18 18 17 16 14 13 13 13 13 12 12 11 11 10 10 10 9 9 9 9 10 10 10 11 11 11 11 12 13 13
30 27 25 24 24 23 23 22 21 20 19 18 17 17 17 17 15 14 13 12 12 11 11 10 10 10 9 8 8 9 9 9 9 10 10 9 10 10 11 10 11 12 13 13
29 26 24 23 24 23 22 21 20 19 19 19 17 15 15 14 12 11 11 10 10 9 8 8 8 9 8 8 8 9 8 8 8 9 9 9 9 10 10 11 12 12 13 13
27 25 24 23 23 23 22 21 20 19 19 17 14 13 12 11 10 10 9 9 8 8 7 7 7 7 7 7 7 7 7 7 8 9 9 9 10 10 10 12 12 12 13 13
26 24 24 23 23 23 22 20 19 17 16 13 12 11 10 9 9 8 7 7 7 7 6 6 6 5 5 5 5 5 6 6 7 8 9 9 10 10 10 11 12 12 13 13
24 24 23 23 22 22 21 18 16 14 12 10 8 7 7 7 7 6 5 5 5 5 5 5 4 4 4 4 4 5 5 5 7 8 9 9 10 10 11 12 13 13 13 14
23 23 23 22 21 20 19 16 14 12 10 8 7 6 6 6 5 5 5 5 4 3 3 3 3 3 4 4 4 5 5 5 7 8 9 10 10 11 12 13 13 13 14 15
22 21 21 20 20 19 17 14 13 11 10 9 8 7 6 6 5 5 4 4 3 2 2 3 3 4 4 4 4 5 5 6 7 8 9 10 11 12 13 13 13 14 15 16
20 19 19 19 18 16 15 13 12 11 10 9 9 8 7 6 6 5 4 3 3 3 3 2 3 4 4 4 4 4 5 6 8 9 10 11 11 12 12 12 13 14 16 17
18 17 18 17 16 15 14 13 12 10 9 9 9 8 8 7 6 5 4 4 4 3 2 2 2 3 4 4 5 5 6 7 8 9 10 10 11 12 12 13 14 16 17 18
18 17 17 16 15 14 14 13 11 10 10 10 9 9 8 8 7 6 6 4 3 3 2 2 2 3 4 5 5 6 6 7 8 8 9 10 11 13 13 14 15 17 18 19
18 17 17 16 15 14 13 13 11 10 10 9 9 9 8 8 7 6 6 5 4 3 2 2 2 3 3 4 5 6 6 7 8 9 10 11 12 13 14 16 17 18 18 19
19 18 17 16 15 13 13 12 11 10 9 9 8 8 8 8 8 7 7 6 5 3 2 2 2 2 3 3 4 5 6 8 9 10 11 12 13 14 16 17 17 18 19 19
18 17 16 15 14 13 12 11 10 10 9 9 8 8 9 9 9 8 7 6 4 3 2 1 1 2 2 3 4 5 7 8 9 11 11 12 14 15 16 17 18 18 19 20
17 16 16 15 14 13 13 12 10 10 10 9 9 9 9 10 9 8 7 6 5 3 2 1 0 1 2 3 4 6 7 9 10 10 12 13 14 15 16 17 18 19 19 20
17 16 16 15 14 14 14 12 11 11 11 10 10 9 10 10 9 8 7 6 5 3 2 1 0 1 2 3 5 6 8 9 10 11 12 13 15 16 17 18 19 20 20 22
16 16 16 15 15 15 14 14 13 12 11 11 10 10 10 9 9 7 6 6 4 3 2 1 1 1 2 4 5 7 8 9 10 12 13 14 15 16 17 18 19 20 21 22
17 17 17 17 17 16 15 14 14 12 12 11 11 10 10 9 8 7 6 5 5 3 2 1 1 1 3 4 6 7 8 9 11 12 13 14 15 16 18 19 20 21 22 24
18 18 18 18 18 17 16 15 15 13 12 12 11 11 10 9 8 7 6 5 5 3 3 2 1 2 3 5 6 7 8 10 11 12 14 15 16 17 19 20 21 22 24 25

GEFSNGP_500_meanwind_174.txt.gz
Wind_Speed
27 27 28 28 28 28 28 28 28 28 28 28 28 28 26 26 25 24 23 23 22 21 21 20 19 19 19 19 20 20 20 20 20 18 17 17 16 15 15 14 14 13 13 13
27 27 28 27 27 27 27 27 27 27 28 27 27 27 25 25 24 23 23 22 21 20 19 19 18 18 18 18 18 18 18 17 16 16 16 16 16 16 15 14 12 12 12 12
27 27 28 27 28 28 27 26 26 26 27 27 27 25 24 24 23 22 21 21 20 18 18 18 17 17 16 16 16 16 16 16 16 16 15 15 15 15 13 12 12 12 11 11
28 28 29 28 28 27 27 26 26 26 26 25 26 24 23 22 22 21 20 20 19 18 17 17 16 16 16 16 16 16 15 15 15 14 14 13 14 13 12 11 12 11 11 11
28 29 29 28 27 27 27 27 25 25 25 25 25 23 21 21 21 20 19 20 19 18 17 17 16 16 16 17 17 15 14 13 13 13 12 13 12 11 11 11 11 11 11 12
27 28 28 28 28 28 28 27 26 25 25 24 24 23 22 21 20 19 19 19 19 17 17 16 16 16 16 15 15 14 13 12 12 12 12 11 10 10 10 10 11 11 11 12
27 28 29 29 28 28 27 26 26 25 24 24 23 23 22 21 20 19 18 18 17 17 16 15 15 15 14 14 13 13 12 11 11 11 11 10 10 10 10 10 11 11 11 12
28 29 29 29 29 27 26 26 25 24 24 23 23 22 20 19 18 17 16 15 15 14 13 13 13 13 13 12 12 12 11 11 10 10 9 9 9 9 9 10 11 11 12 12
28 28 29 28 28 28 26 25 25 24 24 23 22 21 19 17 15 15 13 13 13 13 12 11 11 11 11 11 11 11 10 10 9 8 8 8 8 8 8 10 10 10 11 11
28 28 28 27 27 27 26 25 25 23 22 22 20 18 17 16 14 14 12 12 11 11 11 10 9 10 9 9 9 9 9 8 8 7 7 8 8 8 9 9 9 10 10 11
29 28 28 27 26 26 26 25 24 22 20 19 18 16 15 14 13 12 11 10 9 9 9 9 8 8 8 8 7 7 7 7 7 6 6 7 8 8 9 9 10 10 11 11
29 28 27 25 24 24 24 23 22 20 18 17 16 15 14 13 11 10 9 8 8 8 8 7 7 7 7 7 6 6 6 6 6 6 6 7 7 8 8 9 9 10 11 11
29 28 26 24 23 22 22 20 19 19 18 16 14 12 11 11 10 9 8 7 7 7 7 6 6 6 5 5 5 5 5 5 5 5 5 6 7 7 7 9 10 11 11 12
28 26 24 23 22 22 20 19 18 17 16 14 12 11 10 9 8 8 7 7 7 6 6 6 5 5 4 4 4 3 4 4 4 4 5 5 7 7 8 9 10 11 12 12
27 25 23 22 21 21 19 17 16 16 14 13 11 11 10 9 8 7 7 7 6 6 5 5 4 4 3 3 3 3 3 3 4 4 5 6 7 8 8 9 11 12 12 13
25 24 22 21 20 20 18 16 16 14 13 12 11 10 9 9 8 7 7 6 6 6 5 4 3 3 2 3 2 2 3 4 4 5 6 7 8 9 9 10 11 12 13 14
24 23 22 21 19 18 17 17 15 13 12 11 10 10 9 8 8 7 7 6 6 5 5 4 3 2 2 2 2 2 3 3 4 5 6 7 8 10 10 11 12 13 15 16
23 22 21 20 18 17 16 15 14 12 12 11 10 10 9 8 7 7 6 6 6 5 4 4 3 2 2 1 1 2 3 4 5 6 7 7 8 10 10 11 13 14 15 16
23 21 20 19 18 17 16 15 13 13 12 11 10 10 9 8 8 7 7 6 5 5 4 3 2 2 2 1 1 2 3 4 5 6 7 8 9 10 11 12 13 15 16 17
22 21 20 19 18 17 16 14 13 12 12 11 10 10 9 8 8 7 6 5 4 3 3 2 2 2 2 1 1 2 3 4 6 7 8 9 10 11 12 13 14 15 16 17
22 21 19 18 18 17 16 15 14 12 12 11 10 10 9 8 7 7 6 5 4 4 3 3 2 2 1 1 2 2 3 4 6 7 8 9 10 12 13 14 15 15 16 17
21 20 19 18 17 17 15 14 13 12 11 11 10 10 9 8 7 7 7 6 5 4 3 3 2 1 1 1 1 2 3 4 6 8 9 9 10 12 13 14 15 16 17 18
19 18 18 18 17 16 15 14 12 11 11 11 11 10 9 8 8 8 7 7 6 5 4 3 2 1 1 1 1 2 3 5 6 8 9 10 11 12 13 15 16 17 18 19
18 17 17 17 16 15 14 13 12 12 12 11 11 10 10 9 9 8 7 7 7 6 5 3 2 2 1 1 2 3 4 5 7 8 9 10 11 12 14 15 16 17 18 19
18 17 16 16 15 14 13 13 13 13 13 12 11 11 10 10 10 9 8 7 7 7 6 4 3 2 2 2 3 4 4 6 7 8 9 11 12 12 14 15 16 18 19 20
18 17 16 16 16 14 14 14 14 14 14 13 12 12 11 10 10 9 8 8 7 7 6 4 3 2 2 3 3 4 5 5 7 8 9 10 12 13 14 15 17 18 20 21
18 17 16 16 16 15 15 15 15 16 15 15 14 13 12 11 10 9 9 8 7 7 5 4 3 2 2 3 4 4 4 5 6 7 9 11 12 14 15 16 18 19 21 22

GEFSNGP_500_meanwind_180.txt.gz
Wind_Speed
23 23 24 24 25 25 25 26 27 27 28 30 30 30 30 29 29 30 29 29 28 28 28 26 25 23 22 21 21 20 19 19 20 19 18 17 17 18 17 17 17 18 17 17
24 24 24 24 25 26 26 26 27 28 29 30 31 30 30 30 30 30 29 28 28 27 27 26 25 23 22 20 20 20 20 19 19 18 18 17 16 16 16 16 17 17 17 17
24 23 24 24 25 25 26 26 27 28 30 31 31 31 31 31 31 31 29 28 27 26 26 25 23 23 21 20 20 19 19 19 18 18 18 17 16 16 17 17 16 16 16 15
25 24 25 25 25 25 27 27 28 29 30 30 30 31 30 31 31 30 29 27 26 25 24 24 22 21 20 20 19 19 18 18 18 18 17 16 16 16 16 15 14 14 15 15
25 26 27 26 27 26 26 27 28 29 29 29 29 30 30 29 29 28 27 26 24 23 22 22 21 19 19 19 19 19 18 17 18 17 16 15 15 15 15 14 14 14 14 15
26 26 28 27 27 27 28 29 30 30 29 29 29 30 29 28 27 27 26 24 23 21 21 20 20 19 19 18 18 18 17 17 17 16 15 14 14 13 13 13 13 13 14 15
27 27 28 28 28 28 29 30 31 31 30 29 29 28 28 27 26 26 24 23 21 20 19 19 18 17 17 17 16 16 16 16 15 14 13 13 12 11 12 13 13 14 15 15
27 27 27 28 28 28 29 30 31 31 29 28 28 27 27 26 26 24 22 21 20 18 18 16 16 16 16 15 14 14 15 14 13 12 12 11 11 11 11 12 12 13 14 15
26 26 28 28 29 29 30 31 31 30 29 28 27 27 26 25 24 22 20 19 17 17 15 14 14 14 14 14 13 13 13 12 11 11 11 11 10 10 10 11 12 14 14 14
27 27 28 28 29 29 29 29 29 29 27 27 26 25 25 23 22 20 19 17 15 14 12 12 13 12 12 13 13 12 12 11 10 10 10 10 10 9 10 11 12 13 14 13
28 28 29 29 30 29 29 28 28 28 27 26 25 24 22 20 20 18 16 14 13 13 12 12 12 11 11 11 12 12 11 10 9 9 9 9 9 9 9 11 12 13 13 13
29 30 30 31 31 30 29 28 28 27 26 25 23 22 20 19 17 15 14 13 12 12 11 11 11 10 10 11 11 11 11 10 9 9 9 9 9 9 9 10 12 13 13 14
30 30 31 31 30 29 29 28 27 26 25 24 22 21 18 16 15 14 13 12 12 11 11 10 10 9 9 10 10 10 9 9 8 8 8 9 9 9 10 10 11 12 13 14
30 30 30 30 30 29 28 27 26 25 24 23 21 19 17 15 14 13 12 12 11 11 10 9 8 9 9 10 9 9 8 8 8 8 8 9 9 9 9 10 12 13 13 15
31 31 30 30 30 28 27 26 25 24 24 22 20 17 15 15 14 13 12 12 11 10 9 8 8 8 9 9 8 8 7 7 7 7 8 9 9 10 10 11 12 13 14 15
31 30 30 29 29 28 27 25 24 23 23 21 19 17 15 14 13 12 11 11 10 9 8 7 7 8 8 8 8 7 7 7 7 8 9 9 10 10 11 11 12 13 14 15
30 30 30 29 28 27 26 24 23 22 21 20 18 16 15 14 13 12 11 10 9 9 8 8 7 7 7 7 7 6 7 6 7 8 9 9 10 11 12 12 13 14 15 16
31 30 29 28 27 26 24 23 21 21 20 18 17 16 15 13 12 11 10 10 9 8 7 7 6 6 6 6 6 6 6 6 7 8 9 10 10 11 11 12 14 15 16 16
30 29 29 28 27 25 23 21 19 19 18 17 16 15 13 12 11 10 9 8 7 7 6 6 5 5 5 5 5 5 6 6 8 8 9 10 10 11 12 13 15 16 16 17
29 29 28 26 25 24 21 20 19 18 17 16 15 14 13 12 10 10 8 7 6 5 5 5 5 5 5 5 5 5 5 7 7 8 9 10 11 12 13 14 15 16 17 17
29 27 26 25 24 22 20 19 18 17 16 15 15 14 13 12 11 9 8 7 6 5 4 4 4 4 5 5 4 4 5 6 7 8 9 10 11 12 13 14 15 16 17 18
28 26 25 24 22 20 19 18 17 16 15 14 14 14 13 12 11 10 9 7 6 5 5 4 4 4 5 4 4 4 5 6 7 8 8 10 11 12 13 14 16 17 17 18
26 25 24 22 21 19 18 17 16 15 14 14 14 14 13 12 12 11 10 8 7 6 5 4 4 3 3 3 3 4 5 5 6 7 8 10 11 12 13 15 16 17 18 19
25 24 23 21 20 18 17 16 15 15 14 14 14 13 13 12 12 12 10 9 8 6 5 4 4 3 3 3 4 5 5 6 7 8 8 10 11 12 13 15 16 17 18 19
24 23 23 21 20 19 17 16 15 15 14 14 13 13 13 12 12 12 11 10 9 7 6 5 5 4 3 3 4 5 6 6 7 8 9 10 11 12 14 15 16 17 18 19
24 23 23 22 21 19 17 17 16 15 15 14 14 13 13 13 13 12 11 10 9 8 7 6 5 4 4 4 4 5 6 6 7 8 9 10 11 12 14 15 16 17 19 20
25 23 22 22 21 20 18 17 16 16 16 15 15 14 13 13 13 12 12 11 10 9 8 7 5 5 4 4 4 5 5 6 7 8 9 10 12 13 14 15 16 18 19 20

GEFSNGP_500_meanwind_186.txt.gz
Wind_Speed
20 20 21 21 20 20 21 22 23 24 25 27 27 28 28 28 28 29 30 30 29 29 28 25 24 24 23 22 21 21 20 19 20 19 18 18 18 17 17 17 17 16 16 16
20 20 20 20 21 21 22 22 23 24 26 27 28 29 29 28 28 29 29 29 28 28 27 25 23 22 22 22 21 20 19 19 19 18 18 17 17 17 16 17 16 16 15 15
20 20 20 20 21 21 21 22 23 25 27 28 28 28 28 27 27 27 27 27 27 27 26 24 23 23 22 21 21 20 19 17 17 17 17 17 16 16 16 16 15 14 14 14
22 21 21 22 22 22 23 24 25 26 27 28 28 28 26 25 25 26 26 26 26 25 24 24 23 23 21 20 19 19 16 15 15 16 16 16 15 16 16 15 13 12 12 14
24 24 23 23 23 24 25 25 26 26 27 27 27 26 25 24 25 25 25 25 26 25 24 23 22 22 20 19 18 17 15 14 14 15 15 15 15 15 14 13 12 12 13 13
25 25 25 24 24 25 25 25 26 26 25 25 26 26 25 24 24 24 25 26 25 24 23 22 21 21 20 18 17 16 15 12 12 13 13 14 14 13 12 11 11 11 11 11
26 26 26 26 25 26 26 26 24 24 24 24 25 26 25 24 24 24 25 25 25 23 22 21 20 20 18 17 16 15 13 11 11 12 13 12 12 12 10 10 11 11 11 11
27 27 26 27 26 26 26 25 25 25 25 25 26 26 25 25 25 24 24 24 24 23 21 20 19 18 16 16 15 14 12 10 10 11 11 11 11 11 10 10 10 11 11 12
28 27 27 27 27 26 26 25 25 25 25 26 26 26 26 26 26 25 24 24 23 21 19 18 17 16 15 14 14 13 10 9 10 10 10 11 12 11 10 9 10 11 11 12
28 27 27 28 27 27 27 26 26 27 27 27 27 27 26 26 26 25 23 22 20 19 17 16 15 14 13 13 11 10 8 9 9 9 10 11 11 10 10 9 10 11 12 12
26 26 26 26 27 27 27 27 28 28 28 28 28 27 26 25 24 22 20 20 18 16 16 14 13 12 12 10 9 8 7 8 8 8 8 9 9 9 9 10 11 11 11 12
26 26 26 26 26 27 28 28 28 27 27 27 26 26 24 23 22 20 19 17 16 15 13 12 11 10 10 8 8 7 6 6 6 6 7 8 8 9 9 10 11 12 12 13
27 26 26 26 26 27 28 28 28 28 27 26 26 25 24 23 21 19 18 16 14 13 12 11 9 9 8 7 7 7 6 6 6 6 7 8 9 9 9 10 10 11 12 13
27 27 26 27 27 28 29 28 28 28 27 26 25 25 23 21 20 18 17 15 13 12 11 10 9 8 7 7 7 6 5 5 6 6 7 8 9 9 9 9 10 11 13 13
27 27 28 29 29 29 29 29 28 27 27 25 24 23 21 20 18 17 15 13 12 11 10 9 9 8 7 7 6 5 5 6 6 7 7 8 9 10 10 10 11 11 12 12
29 29 29 30 30 29 29 28 27 26 26 24 23 21 20 18 16 15 13 12 11 9 9 9 8 6 6 6 5 5 5 6 6 6 7 8 9 10 11 11 11 11 12 13
30 30 29 29 29 29 29 28 27 26 25 23 21 20 18 17 15 14 13 12 11 10 9 8 7 6 6 5 5 5 5 5 6 6 7 8 9 10 10 11 11 12 13 14
30 30 29 28 28 28 28 28 27 25 24 22 20 19 17 16 15 14 13 12 11 10 9 8 6 6 6 5 5 5 5 5 5 7 8 9 9 9 10 11 11 12 12 14
29 29 28 28 28 27 26 26 24 23 22 20 19 18 17 16 15 14 13 12 11 10 9 8 7 6 6 6 6 5 5 5 6 7 8 9 9 9 10 10 11 12 12 13
29 28 28 27 27 26 25 23 22 22 21 20 19 18 16 15 15 14 12 12 11 10 9 8 7 6 6 6 5 4 4 5 6 7 8 8 9 9 9 10 11 11 12 13
28 28 27 26 25 24 23 22 21 20 20 19 18 17 16 15 14 13 12 11 11 9 9 8 7 6 6 5 5 4 5 5 6 7 8 8 8 9 10 11 12 12 12 14
28 27 27 26 24 22 22 22 22 21 20 19 18 16 16 15 14 13 12 11 11 10 10 9 8 7 6 5 5 4 5 5 6 7 8 8 8 9 10 11 12 12 12 13
28 27 26 25 24 22 21 21 22 21 19 19 17 16 15 15 14 12 12 11 11 11 10 9 9 8 7 6 5 5 5 5 6 6 7 8 9 9 10 11 12 12 13 14
28 27 26 25 24 23 22 21 21 20 19 18 17 16 15 14 13 13 12 12 11 11 10 9 9 8 7 6 5 4 5 5 5 6 7 8 8 9 11 11 12 13 14 15
28 27 26 26 25 23 22 21 20 19 18 18 17 16 14 14 13 13 12 11 11 11 10 10 9 8 7 6 5 5 4 4 5 5 6 7 8 10 11 12 13 13 14 15
27 26 26 25 24 23 22 21 20 18 17 17 16 16 15 14 14 13 13 12 12 11 11 10 9 8 8 7 6 4 4 4 4 5 6 7 8 10 12 13 13 14 15 16
28 27 26 24 24 22 21 20 19 17 16 16 15 15 15 15 14 14 14 14 13 12 11 10 9 8 7 6 6 4 4 4 4 5 6 8 9 11 12 13 14 15 15 16

GEFSNGP_500_meanwind_192.txt.gz
Wind_Speed
21 22 22 22 22 22 23 23 24 24 24 24 25 25 25 25 26 26 26 26 27 28 28 28 27 26 25 25 24 24 23 23 22 21 19 18 18 17 16 17 17 17 17 18
22 22 22 22 23 22 23 23 24 24 24 24 25 25 26 26 26 26 26 26 26 26 27 27 26 26 25 24 24 23 21 20 20 20 18 18 17 16 16 16 16 17 18 18
22 22 23 22 23 23 22 22 23 24 24 25 25 26 26 26 26 27 26 26 26 26 26 25 25 25 25 23 22 21 20 19 19 18 16 16 16 15 15 14 15 16 16 17
24 23 23 24 24 24 23 23 24 25 25 26 26 26 26 26 27 27 26 26 26 26 26 26 26 25 24 23 22 21 20 18 17 16 16 16 15 14 13 13 13 14 15 15
25 25 25 24 24 24 24 24 24 25 26 26 26 26 25 26 27 27 26 26 26 26 25 25 25 24 22 22 21 20 19 18 17 16 16 15 14 13 13 13 13 14 14 14
26 26 26 25 24 24 24 24 24 25 26 26 27 27 26 26 26 26 26 25 26 26 25 25 24 22 22 21 20 18 18 17 16 16 16 14 13 13 12 12 13 13 13 14
25 25 24 24 24 24 24 25 25 26 27 27 27 27 26 25 25 26 25 25 25 25 25 24 23 22 21 20 18 18 17 17 16 16 15 14 13 12 12 12 12 13 14 14
25 25 24 24 25 25 25 26 26 27 27 27 27 26 25 25 25 26 25 25 25 25 24 24 23 22 20 19 17 17 17 16 15 14 14 13 11 11 11 12 13 13 13 14
26 26 26 26 27 27 27 27 28 28 28 27 27 25 25 25 25 25 24 24 24 24 24 23 22 20 18 16 15 16 16 15 14 13 12 12 11 10 11 12 12 13 13 14
27 27 27 27 28 28 28 29 29 29 28 27 26 25 25 24 24 24 24 23 23 23 23 22 20 18 17 15 14 14 13 13 12 11 10 10 9 10 11 11 12 13 13 13
28 27 28 28 28 29 29 29 29 29 28 28 26 25 25 25 25 25 24 24 23 22 21 20 19 17 16 14 13 13 12 12 10 10 10 9 9 10 11 11 13 13 13 13
29 29 29 29 30 30 30 30 29 29 28 27 26 25 26 26 26 25 25 23 21 20 19 18 17 16 14 13 12 11 10 10 9 8 8 9 9 10 11 12 13 13 13 13
30 29 29 30 31 30 30 30 29 28 27 27 26 26 26 26 25 24 22 21 20 19 18 17 16 15 13 12 11 10 9 9 8 8 9 9 9 10 11 12 13 14 14 14
31 31 31 31 31 31 31 30 30 29 28 27 26 26 26 25 24 23 21 20 20 18 17 16 15 14 13 12 10 10 10 9 8 8 9 9 10 11 11 11 12 13 13 14
31 32 32 32 31 31 31 30 30 29 28 26 26 26 25 25 23 22 21 20 19 17 16 16 15 14 13 12 10 9 9 8 7 8 8 9 10 11 11 12 13 13 13 14
31 31 31 31 31 31 31 30 30 29 28 27 27 26 25 24 22 21 20 19 17 16 16 15 14 13 12 11 10 8 7 7 7 7 8 9 10 11 11 13 13 13 13 14
32 31 31 31 31 31 31 30 29 28 27 26 25 24 23 22 21 19 18 17 16 15 14 14 13 12 11 10 8 7 6 7 7 7 8 9 10 11 12 13 13 13 14 14
33 32 31 31 31 30 29 28 28 27 26 25 24 23 22 20 19 18 17 16 16 15 14 13 12 11 10 9 8 7 7 7 7 7 9 10 11 12 12 13 12 13 14 14
32 31 31 31 30 28 27 27 26 26 25 24 23 21 21 20 19 19 17 16 16 15 14 13 12 11 9 9 8 8 7 7 8 8 10 11 11 12 12 13 13 13 13 13
31 30 30 30 29 28 26 26 25 25 24 23 22 20 19 19 18 18 17 16 16 15 14 12 11 10 9 9 8 8 8 8 8 10 10 11 11 12 12 12 12 13 13 13
30 30 30 30 29 28 26 25 24 23 23 22 21 20 20 19 19 18 17 16 15 14 13 12 11 10 10 9 9 8 8 8 9 10 10 10 11 11 11 11 11 12 13 14
31 30 30 29 28 27 26 25 24 23 23 23 22 21 20 19 18 17 16 15 14 13 12 11 11 10 10 9 9 8 8 8 8 9 9 10 10 11 11 10 11 12 13 14
30 30 29 29 28 27 26 25 25 24 23 23 22 21 20 18 17 16 16 14 13 12 12 11 10 10 9 10 9 9 9 8 8 8 8 9 9 10 10 10 11 12 13 14
31 30 30 29 28 27 26 25 25 24 23 22 22 20 19 18 16 16 15 14 13 12 11 11 10 9 9 9 9 9 8 8 8 8 8 8 8 9 9 10 11 12 13 13
31 30 29 29 28 27 26 25 25 24 23 22 21 20 19 18 17 16 15 13 13 12 12 12 11 10 10 9 9 8 8 8 8 8 7 7 8 8 9 10 11 12 13 13
31 30 29 29 28 27 26 26 25 25 24 23 21 21 20 18 17 16 14 14 13 12 12 12 12 11 10 9 9 8 8 8 7 6 6 6 7 8 9 10 11 12 13 13
31 29 29 28 27 27 26 25 25 24 23 23 22 21 20 18 17 16 15 14 14 13 12 12 11 11 11 10 9 9 8 7 6 6 6 6 7 8 9 10 12 13 13 13

GEFSNGP_500_meanwind_198.txt.gz
Wind_Speed
19 19 20 20 20 20 21 22 22 23 25 26 26 27 27 27 28 28 28 28 27 27 26 26 26 25 24 24 23 22 21 21 20 18 18 18 18 18 19 19 18 18 17 17
19 19 20 20 19 20 21 22 23 24 25 26 26 26 26 26 27 27 27 27 26 25 25 25 25 24 23 23 22 22 20 19 19 18 17 17 18 18 18 18 17 16 16 16
19 20 20 20 20 20 21 22 23 24 24 25 25 25 25 26 27 27 26 26 25 24 25 25 24 23 23 23 22 21 19 19 18 17 17 17 17 17 17 16 16 15 14 15
21 21 20 21 21 21 21 22 23 24 24 25 25 25 25 26 27 26 26 25 24 24 25 25 24 24 23 22 21 20 18 17 16 16 15 15 15 15 15 15 14 13 13 13
21 21 21 22 22 23 23 23 24 24 24 25 25 25 25 25 26 25 25 25 24 24 24 24 24 23 22 21 20 19 18 17 15 15 14 14 14 14 13 13 13 12 12 11
21 21 22 23 23 23 25 25 25 25 25 25 25 25 24 25 24 24 24 24 24 24 24 23 22 21 20 20 18 18 16 15 14 14 15 14 14 13 13 12 12 11 11 11
22 22 24 25 25 25 25 25 26 26 26 26 26 25 25 24 24 24 24 24 24 23 22 22 21 20 19 19 17 16 16 15 14 14 14 14 14 13 12 12 11 10 10 10
23 23 25 26 26 25 26 27 27 27 27 27 26 26 25 24 24 24 24 24 24 22 22 21 21 20 19 17 16 15 15 14 14 13 13 13 13 12 12 11 9 9 9 10
24 25 26 27 27 28 28 28 27 27 27 28 27 26 26 25 25 25 24 24 23 22 21 21 20 19 18 17 16 14 14 14 13 13 12 12 12 11 10 8 8 8 9 10
25 26 27 27 28 28 28 28 28 28 28 28 28 27 26 25 24 24 24 24 23 22 20 20 19 18 17 16 14 14 13 13 13 13 12 11 11 10 9 8 8 8 9 10
26 27 28 28 28 28 28 28 28 29 29 28 28 27 26 25 24 24 23 23 22 21 20 19 18 17 16 15 14 13 13 12 12 12 11 10 10 9 9 8 8 9 10 11
28 28 29 29 28 29 29 29 28 28 28 28 28 27 26 25 24 23 22 21 20 20 19 19 18 17 15 14 12 12 11 11 11 10 9 9 9 9 9 10 10 10 10 10
30 30 30 30 30 30 29 29 29 29 28 27 27 26 25 24 23 22 22 20 20 19 19 18 17 15 14 12 12 12 12 11 10 9 8 9 9 10 9 10 11 11 11 10
31 31 31 31 31 30 30 29 29 29 28 27 27 26 25 23 22 22 21 20 19 18 17 17 15 14 13 12 12 12 12 11 9 8 8 9 9 10 10 10 11 11 12 11
32 31 31 31 30 30 29 29 29 28 27 27 26 25 23 22 21 20 20 19 18 17 16 15 14 13 12 11 12 12 12 10 8 8 8 9 9 9 9 10 10 11 12 11
31 31 31 30 29 29 29 28 27 26 25 25 23 22 21 20 19 19 18 17 16 15 14 14 13 13 12 11 11 11 10 9 8 8 8 8 8 9 9 9 10 11 11 11
32 31 31 30 29 28 28 27 27 25 24 23 22 21 20 20 19 18 17 16 15 14 14 13 12 12 12 11 11 10 9 9 8 8 8 9 9 9 9 10 10 11 11 11
31 30 30 30 29 28 28 27 27 25 24 23 22 21 20 19 19 18 17 16 16 15 15 14 13 12 11 11 10 9 9 9 8 8 8 9 10 10 9 10 10 10 10 11
31 30 29 29 28 27 27 26 25 24 23 23 22 21 21 20 18 17 17 16 16 16 15 14 13 13 12 10 10 10 9 9 9 9 9 9 9 9 10 10 11 11 10 11
31 30 29 28 27 26 26 25 25 24 23 22 21 20 20 19 19 18 17 17 17 16 15 14 14 12 11 10 10 10 10 10 10 10 9 9 9 9 10 10 10 10 10 10
30 29 28 27 27 27 26 25 25 24 22 21 21 20 19 19 19 18 17 17 16 16 15 14 13 12 10 9 9 10 10 10 9 9 9 9 9 9 10 10 9 9 9 10
30 29 28 28 27 26 26 26 25 24 23 22 22 21 20 19 19 18 17 17 17 16 15 14 13 12 11 10 10 10 10 9 9 9 9 9 9 9 8 8 8 8 9 10
30 29 28 28 27 26 25 25 24 24 24 23 22 22 20 20 19 18 17 17 16 15 14 13 13 12 12 12 10 9 9 9 9 9 9 9 8 8 8 8 8 8 8 9
30 29 28 27 27 26 25 25 24 23 23 23 23 22 21 20 19 18 18 17 16 14 14 13 12 12 11 11 10 9 9 9 9 9 9 8 8 8 8 8 8 8 8 9
31 30 29 29 27 26 26 25 24 23 23 22 22 22 21 20 19 18 17 16 15 14 13 13 12 12 11 10 10 10 9 9 9 9 9 8 8 8 8 8 8 8 8 8
31 30 29 28 27 26 25 24 24 23 22 22 22 21 20 19 19 17 16 15 15 14 14 13 12 12 11 11 10 10 10 10 9 8 8 8 8 8 8 8 8 8 8 8
30 29 28 27 27 26 25 24 24 23 23 22 21 20 20 20 19 18 17 16 15 15 14 13 13 12 12 11 11 11 10 10 9 9 8 9 8 8 8 8 8 8 8 7

GEFSNGP_500_meanwind_204.txt.gz
Wind_Speed
16 17 18 19 20 20 21 22 23 24 26 28 29 30 30 31 31 30 29 30 30 29 27 27 26 26 26 25 25 25 24 24 23 21 19 18 17 17 17 17 17 18 18 18
17 17 19 19 20 20 21 22 24 25 26 28 29 30 30 30 29 29 29 29 29 28 28 27 26 26 25 25 24 24 23 22 22 21 18 17 16 15 15 16 17 17 17 17
18 18 20 20 20 21 21 23 24 26 27 28 29 29 29 29 29 29 29 29 28 28 27 26 26 25 24 24 24 23 22 21 21 20 18 17 16 15 15 16 16 17 17 16
19 20 20 21 21 22 22 23 25 26 27 28 28 28 29 29 30 29 29 29 29 28 27 26 26 25 24 23 23 22 21 20 19 19 17 16 15 15 14 15 16 16 16 15
19 20 22 22 21 22 23 25 26 27 27 27 27 27 28 29 29 29 30 30 29 28 26 26 25 24 23 22 22 21 20 18 18 18 16 15 15 15 15 15 15 15 15 14
21 21 23 24 23 24 25 26 26 26 27 28 28 28 28 29 30 30 30 29 28 27 26 25 24 23 22 21 20 20 19 18 18 17 16 16 15 14 15 15 15 14 13 12
23 23 24 25 25 25 25 27 27 27 29 29 29 29 30 30 30 30 29 28 27 27 25 24 23 22 21 20 20 19 19 18 17 16 16 15 14 14 14 14 13 13 12 12
24 25 25 26 26 26 27 28 29 29 29 29 29 30 30 30 29 29 28 27 26 26 24 23 22 21 21 20 19 19 18 17 16 16 15 15 14 13 13 13 13 12 12 12
25 25 27 28 28 29 29 30 30 30 30 30 30 29 29 29 28 27 27 26 26 25 24 22 21 20 19 19 18 18 18 17 16 15 14 14 13 12 12 12 12 11 11 11
26 27 28 29 30 31 31 31 31 31 31 31 30 30 30 30 28 27 27 26 25 24 23 21 20 19 18 18 18 17 16 16 15 15 14 13 12 12 12 11 11 11 12 12
28 29 30 31 31 32 32 32 32 32 31 31 31 30 30 29 27 27 26 25 23 22 21 20 19 17 16 16 16 15 15 15 15 14 12 12 12 12 12 12 12 12 12 13
30 31 32 32 32 33 33 32 32 32 31 30 29 29 28 27 26 25 23 22 21 20 19 17 16 16 16 16 15 15 14 14 13 12 12 12 12 12 11 11 11 12 13 14
31 32 33 33 33 33 33 33 32 31 30 29 28 27 26 25 24 23 22 21 20 19 17 16 16 16 15 15 14 14 14 14 13 13 12 12 12 11 11 11 12 12 13 15
31 32 32 32 33 32 32 32 31 30 29 28 27 26 25 25 24 23 21 21 20 19 18 17 17 16 16 15 15 15 15 14 14 13 13 12 11 11 12 12 13 12 13 14
31 32 32 32 32 31 31 31 30 29 29 28 27 26 25 24 24 23 22 21 20 19 18 18 17 17 16 15 15 15 15 15 14 13 12 12 11 12 12 13 13 12 12 12
31 31 31 31 31 30 30 29 29 28 27 26 26 25 24 23 23 22 22 21 20 19 18 17 17 17 16 15 15 15 15 15 13 13 12 12 11 11 11 11 12 12 12 13
31 31 31 31 31 30 30 29 28 27 27 26 25 25 23 22 22 22 22 20 20 19 19 18 17 17 17 16 15 15 14 14 13 13 12 12 11 11 10 10 11 12 13 14
31 32 32 32 31 30 29 29 28 27 27 26 26 24 23 22 22 22 22 21 20 19 20 19 17 16 16 16 15 15 14 14 14 13 13 12 12 11 10 11 11 11 12 12
31 32 32 31 31 30 29 28 27 27 26 25 25 24 23 23 23 23 22 21 20 21 20 18 17 16 16 16 15 14 15 14 14 13 13 12 12 11 11 11 10 11 11 11
32 32 32 31 31 30 29 29 28 27 27 26 25 24 24 23 22 22 22 21 20 20 19 18 17 17 16 16 15 14 14 14 14 14 13 12 11 11 10 10 10 11 11 11
33 32 32 32 31 31 31 30 30 29 28 27 26 25 24 23 22 22 21 21 20 19 19 18 18 17 16 16 15 14 14 13 13 13 12 11 11 11 10 10 11 11 10 11
33 33 33 33 33 33 32 32 31 31 29 27 26 24 24 24 22 21 20 20 19 19 18 18 17 17 16 16 16 15 14 13 12 12 12 11 11 11 11 11 11 10 10 10
35 35 35 35 34 34 33 33 32 31 29 27 26 25 24 22 21 20 19 19 19 19 18 17 17 17 17 17 16 15 14 13 12 12 12 11 11 11 11 11 11 10 10 10
37 36 36 35 34 33 33 32 31 30 29 27 26 25 24 22 21 20 20 20 19 18 18 18 18 18 17 17 16 15 14 13 13 12 11 11 11 11 11 11 11 10 11 11
38 37 36 35 33 32 32 31 30 29 28 27 26 25 24 23 22 21 21 20 19 18 18 18 18 17 17 16 15 15 14 13 12 11 11 11 11 11 11 11 11 10 10 10
37 36 35 34 33 32 31 30 29 27 27 25 25 25 24 23 21 21 20 19 18 18 18 18 18 17 16 15 15 14 14 13 12 12 11 12 12 12 12 11 11 11 11 11
35 34 33 32 31 30 30 29 27 26 25 24 23 23 23 22 21 20 19 17 17 17 17 16 16 16 15 15 14 14 13 13 13 13 13 12 12 11 11 12 11 11 11 12

GEFSNGP_500_meanwind_210.txt.gz
Wind_Speed
16 17 17 17 17 17 17 19 21 23 24 25 25 26 26 27 27 26 27 28 28 28 28 27 27 26 26 25 24 23 22 20 19 18 17 16 15 14 14 13 13 12 12 13
16 17 17 17 18 18 19 20 21 23 23 24 25 25 26 27 27 27 27 29 29 28 27 27 26 25 25 24 23 22 21 20 18 17 17 16 15 13 13 14 13 12 13 13
16 16 18 19 19 19 20 21 22 24 24 25 25 26 26 27 27 28 28 28 27 27 27 27 26 25 25 24 23 22 21 19 18 17 16 15 15 13 13 12 12 12 12 12
18 18 19 20 20 21 22 23 23 24 24 24 24 25 26 27 27 28 28 27 28 28 28 27 27 26 25 24 22 21 20 19 18 16 14 14 14 14 13 13 12 10 11 12
20 20 20 19 20 22 23 24 24 23 23 23 24 24 25 26 27 28 28 28 28 28 28 28 27 25 23 22 21 20 18 17 17 15 15 15 15 14 13 12 11 10 12 12
19 20 20 21 21 22 23 23 23 23 23 23 24 25 26 27 27 28 28 28 28 28 27 26 25 23 22 21 20 18 17 16 15 15 15 15 15 14 13 13 13 13 13 13
19 20 21 22 22 22 23 24 23 23 24 24 25 26 27 27 27 28 28 28 27 26 24 24 22 21 21 20 19 17 16 15 15 16 16 16 15 14 14 14 14 14 13 13
21 21 22 23 23 24 24 24 24 25 25 26 26 27 27 27 27 27 27 27 27 26 24 22 21 20 20 18 17 16 16 16 17 17 17 16 15 15 15 15 15 14 14 14
21 22 23 24 24 25 25 25 25 26 26 26 27 27 26 26 26 26 26 26 26 25 23 21 21 20 18 17 17 17 17 17 17 17 16 15 15 14 15 15 15 15 15 15
22 23 24 24 25 25 25 26 26 27 27 27 27 26 26 26 27 26 26 25 25 23 21 20 19 18 18 18 18 17 17 17 17 16 15 14 14 14 15 15 15 15 14 14
23 24 25 25 26 26 26 26 27 27 27 27 26 26 26 26 26 26 25 24 23 22 20 19 19 19 19 19 18 17 16 16 16 15 15 15 15 15 15 16 15 14 13 12
24 24 25 25 26 26 26 26 27 27 27 27 26 26 25 25 25 25 24 24 22 21 20 19 19 19 19 19 18 17 16 16 15 15 15 15 14 14 14 14 13 12 11 10
25 25 25 26 26 26 26 27 26 26 26 26 26 26 25 25 25 25 25 25 23 21 20 19 19 18 18 18 18 16 17 17 16 16 15 14 14 13 12 11 11 10 10 10
25 25 25 25 25 25 25 25 25 25 26 26 26 26 26 25 25 25 25 24 23 22 21 20 20 19 18 18 17 17 18 17 17 16 15 14 13 12 11 10 10 10 10 10
26 26 25 26 26 26 25 25 25 25 26 26 26 26 26 25 25 24 24 23 22 21 21 20 20 19 19 18 17 17 17 17 16 16 15 14 12 11 10 10 10 10 10 9
26 26 26 27 27 27 27 27 27 27 27 27 27 27 26 25 24 24 24 23 22 21 21 20 20 19 19 18 16 16 17 16 16 15 14 13 12 11 11 11 10 10 10 9
27 27 27 27 27 27 28 28 28 28 27 27 27 27 27 25 25 25 24 23 22 21 20 20 19 19 18 17 17 16 16 15 15 14 13 12 12 12 12 12 11 10 10 9
28 28 28 28 28 29 29 29 29 29 28 28 28 28 27 26 25 24 24 23 22 21 21 20 19 18 17 17 16 15 15 15 14 14 13 13 12 12 12 12 11 11 10 10
28 28 28 29 29 29 30 30 30 29 29 29 29 28 27 26 25 24 24 24 22 21 20 20 19 18 17 16 15 14 14 14 15 14 14 13 12 12 11 11 10 10 10 10
29 30 31 31 31 31 31 31 31 31 30 29 29 29 28 27 26 25 25 24 22 21 20 19 18 18 17 16 15 14 15 15 15 15 14 13 12 11 10 10 10 9 9 8
30 31 31 32 32 32 32 32 32 32 31 31 30 30 28 28 27 26 25 23 22 21 19 18 18 17 17 16 15 15 15 15 15 15 14 12 11 10 10 10 9 9 8 8
31 31 32 33 33 33 33 33 33 33 31 31 30 29 28 27 26 25 24 23 22 21 20 19 18 17 17 17 16 16 15 15 15 15 14 12 11 10 10 10 9 9 9 9
33 34 34 34 35 35 34 34 33 32 31 30 30 28 27 26 25 24 23 23 22 21 21 20 19 19 18 17 17 16 16 16 16 15 14 13 12 11 11 10 10 10 10 10
35 35 35 35 36 35 35 33 32 31 30 29 28 27 26 26 24 24 23 22 22 21 20 19 18 18 17 17 16 16 16 16 15 15 14 13 12 11 11 11 11 11 11 11
37 36 35 35 35 34 33 32 31 30 29 28 26 26 25 24 23 23 22 22 21 20 19 18 17 17 17 17 17 16 16 15 15 14 14 13 12 11 11 11 11 11 11 11
36 36 35 34 34 33 32 31 30 29 28 27 26 25 23 23 23 23 22 21 20 20 19 18 17 16 17 17 17 17 16 15 15 14 14 12 12 11 11 11 11 11 12 12
35 34 34 33 33 32 31 30 29 27 26 25 24 23 23 22 23 22 21 21 20 19 19 19 18 17 17 17 17 16 15 15 15 15 14 13 11 10 9 9 10 10 10 11

GEFSNGP_500_meanwind_216.txt.gz
Wind_Speed
17 17 18 19 19 20 21 22 23 23 23 23 24 24 25 24 24 23 23 22 23 24 25 25 26 26 26 25 25 25 24 24 23 22 21 21 20 19 18 18 18 17 17 17
18 19 20 21 21 21 22 22 23 23 23 24 24 25 25 25 24 24 23 23 24 24 25 26 26 26 25 24 24 24 24 24 23 22 21 21 20 18 17 17 17 16 17 17
19 20 21 21 21 21 22 22 23 23 24 24 24 24 25 25 25 24 24 24 25 25 26 26 26 26 25 24 24 24 23 23 23 23 22 21 20 18 17 17 16 16 17 17
20 21 21 21 21 22 22 23 23 23 24 25 25 25 25 25 25 24 24 25 26 26 26 26 27 26 25 24 24 24 23 23 23 23 21 21 20 19 18 17 17 17 17 17
20 21 22 22 22 23 23 23 24 24 24 24 25 25 25 25 24 24 25 25 26 26 26 26 26 26 25 24 24 24 23 23 23 22 21 20 20 20 20 19 19 18 18 17
21 22 22 23 23 23 24 24 24 24 25 25 25 25 24 24 25 25 26 26 26 26 26 26 26 26 25 24 24 23 22 22 22 21 21 20 21 22 21 19 18 18 17 17
21 22 22 23 23 24 24 24 25 25 25 24 25 25 25 26 26 26 26 26 26 26 26 26 26 26 25 24 24 23 22 22 21 21 21 21 22 22 20 19 18 17 17 16
21 22 23 23 23 23 24 24 25 25 25 25 26 26 26 26 26 26 26 26 26 26 27 26 26 26 25 24 23 22 21 21 21 20 20 21 21 21 20 19 18 17 16 16
23 23 23 24 24 24 25 26 26 26 26 26 26 27 27 27 26 26 26 26 26 26 27 26 26 26 25 24 23 22 21 21 21 21 21 21 20 20 19 18 17 16 16 15
24 24 24 24 25 25 25 26 26 27 27 27 27 27 28 27 26 26 27 27 26 26 27 27 26 25 24 23 23 22 22 22 22 22 21 20 20 19 18 17 17 17 16 14
25 25 25 25 25 25 26 26 27 27 27 28 28 28 29 28 26 26 27 28 27 26 26 26 25 24 24 24 23 23 23 22 21 21 21 20 19 18 18 18 17 17 16 15
26 26 26 26 26 26 26 26 27 27 28 28 28 28 28 27 26 27 27 28 27 26 26 26 25 25 24 24 24 24 23 22 21 21 20 19 18 17 17 17 16 16 15 15
27 27 27 27 27 27 27 27 27 27 27 28 28 27 27 26 26 26 27 27 27 27 27 26 26 25 24 23 23 23 22 21 21 19 18 17 16 16 16 16 16 15 15 14
28 28 28 28 28 28 28 28 28 28 28 28 28 27 27 26 26 27 27 27 27 27 26 26 26 25 24 23 23 22 21 20 19 18 17 16 15 15 15 15 15 15 14 13
29 29 29 28 28 29 29 29 29 29 29 29 29 28 28 28 28 28 28 28 27 27 26 26 26 24 24 23 22 21 20 19 18 17 16 15 15 15 15 15 14 14 14 13
31 30 30 29 29 30 30 30 30 30 30 29 29 29 29 29 29 29 29 28 28 27 26 26 25 24 23 22 21 20 19 18 18 17 16 16 16 16 16 15 15 14 14 13
31 31 31 31 30 30 31 31 31 31 30 29 29 29 29 30 30 30 30 29 29 28 26 26 25 23 22 21 20 20 18 18 17 16 16 15 15 15 15 14 14 13 13 13
32 32 32 32 32 32 31 31 31 31 30 30 30 31 31 31 31 31 31 30 29 28 27 26 24 23 21 20 20 19 18 16 16 15 15 15 14 14 14 14 13 13 13 13
32 32 33 33 33 32 32 31 31 31 31 31 32 32 32 32 32 32 31 31 29 28 27 26 24 22 21 20 19 19 17 16 16 17 16 15 14 14 14 13 13 13 14 14
33 33 32 32 33 33 33 32 32 32 32 32 33 33 33 33 33 32 32 31 29 27 25 24 23 21 20 19 19 19 18 17 17 17 16 15 15 14 14 14 14 14 14 14
33 33 33 33 33 33 34 34 33 33 33 33 34 34 33 33 33 32 31 30 28 27 25 23 21 20 20 19 19 19 19 18 18 17 16 16 15 15 15 15 15 14 14 14
34 34 34 35 35 35 35 35 35 35 34 34 35 35 34 33 32 31 30 28 26 25 23 22 20 19 19 19 18 19 19 18 18 18 17 16 16 16 16 16 15 15 14 14
35 35 35 35 35 35 35 35 35 35 35 35 34 34 33 31 30 28 27 26 25 24 23 21 20 20 20 20 20 20 19 19 18 18 17 17 16 16 16 15 15 15 14 14
37 36 37 37 37 36 35 34 34 34 34 33 33 32 30 28 27 26 26 25 24 23 22 21 21 20 20 20 20 19 19 19 18 17 16 16 16 16 15 15 15 14 14 14
37 37 37 37 36 36 35 35 35 35 33 32 31 29 28 27 26 25 24 24 23 22 21 21 21 20 20 20 20 20 19 19 18 18 17 16 15 15 15 14 14 13 13 13
35 35 35 34 34 35 35 35 34 33 32 30 28 27 26 25 24 23 23 22 22 21 21 21 21 20 20 19 20 20 20 19 18 18 17 16 15 15 15 14 13 12 12 12
34 34 33 33 34 34 33 32 31 30 29 28 27 26 25 25 24 24 23 23 23 22 22 21 20 20 20 20 20 20 20 19 17 17 16 15 14 14 13 12 12 12 12 12

GEFSNGP_500_meanwind_222.txt.gz
Wind_Speed
14 14 15 16 17 17 18 18 19 20 21 22 22 23 23 23 24 24 24 24 25 25 24 24 25 24 24 24 23 23 23 22 22 22 21 21 21 22 21 21 21 20 19 18
16 16 16 18 18 18 18 19 20 21 21 21 21 22 23 23 23 24 24 25 25 25 25 24 23 24 24 24 24 23 22 21 21 21 21 22 22 22 22 21 20 20 18 18
17 17 18 19 19 19 19 19 20 20 21 21 21 23 23 23 23 24 25 25 26 25 24 24 24 24 23 24 24 22 21 21 20 20 20 22 22 22 20 20 19 19 18 18
18 19 19 19 19 19 19 19 20 21 21 22 22 23 23 24 24 24 25 25 24 24 23 24 24 24 24 24 23 23 22 22 21 21 22 23 22 21 20 19 19 18 18 17
18 18 19 20 20 20 20 20 20 21 22 22 22 23 24 24 24 24 25 24 24 23 23 23 23 24 24 24 23 23 23 22 22 22 23 22 22 21 20 19 18 19 18 18
19 19 20 21 21 21 21 21 22 22 22 23 23 24 24 25 25 25 25 25 24 23 23 23 23 23 24 24 23 23 23 23 22 23 22 22 21 21 20 19 18 18 18 18
20 20 22 22 21 21 21 23 23 23 23 24 24 25 25 25 25 25 25 24 24 24 24 24 24 24 24 23 23 23 23 23 23 23 23 22 21 20 19 18 17 17 17 16
20 21 23 23 22 22 22 23 23 24 24 25 25 25 26 26 25 25 25 24 24 24 24 24 24 24 24 24 24 23 23 23 23 22 22 21 20 19 18 17 15 16 15 15
22 23 23 23 22 22 22 23 24 24 25 25 25 25 25 26 25 25 25 25 25 25 24 24 24 24 24 24 23 23 23 23 22 21 21 20 19 18 17 16 15 15 16 16
23 23 23 23 23 23 23 24 24 25 25 25 25 25 25 26 25 25 25 25 25 24 24 24 24 24 24 23 23 23 23 23 23 22 21 19 18 18 18 17 16 17 17 17
24 24 24 23 23 24 24 24 25 25 25 25 25 25 25 25 25 25 25 25 25 24 24 24 24 24 24 24 24 24 24 24 23 22 20 19 18 19 18 17 17 17 17 16
24 24 24 24 24 24 24 24 25 25 25 24 24 24 25 25 25 25 25 25 24 24 25 24 24 24 24 24 25 25 25 24 23 21 19 18 19 18 18 17 17 16 15 15
25 25 25 25 25 25 25 25 25 25 25 25 24 25 25 25 25 25 25 25 25 25 26 26 25 25 25 25 24 25 24 22 21 20 19 18 18 18 16 16 15 15 15 14
26 26 26 26 26 26 26 26 26 26 25 26 26 26 26 26 26 26 26 27 27 27 27 27 26 26 25 25 25 24 23 22 21 19 18 18 16 16 16 15 15 15 15 14
27 27 27 27 27 27 27 27 27 27 27 27 27 27 27 27 27 27 28 28 28 28 28 27 27 26 26 25 24 23 22 21 19 17 16 16 15 15 15 15 15 14 14 14
28 28 28 28 28 28 28 28 28 28 28 28 28 28 28 28 28 29 29 29 29 29 29 29 28 28 26 25 23 23 21 19 17 17 16 15 15 15 15 15 15 15 15 14
29 29 29 29 29 29 29 29 29 29 29 30 30 30 30 29 29 30 30 30 30 30 29 29 29 28 26 25 23 22 20 19 17 17 15 15 15 16 16 15 15 14 15 15
30 30 30 30 30 29 29 30 30 30 30 31 31 31 31 31 31 31 31 31 31 30 29 29 28 27 25 24 22 21 19 18 18 17 16 16 16 16 16 15 15 15 15 15
31 31 31 31 31 31 31 31 31 32 32 32 32 32 32 31 31 31 30 30 30 30 29 28 27 26 24 22 21 20 20 19 18 17 16 16 16 16 16 16 16 16 16 16
32 33 32 32 31 31 32 32 32 32 32 32 32 32 31 31 30 30 29 29 29 29 27 26 25 24 22 21 21 20 19 18 18 18 17 17 16 16 16 16 16 16 16 16
33 33 33 32 32 32 32 33 33 33 32 32 32 31 30 30 30 29 29 28 28 27 25 24 23 22 22 21 21 19 18 17 17 17 17 17 17 16 16 16 16 16 16 16
32 32 32 32 32 32 33 33 33 33 32 31 30 30 30 29 29 28 27 27 26 25 24 24 23 22 21 21 19 18 17 17 17 16 16 16 16 16 16 15 15 15 15 15
32 32 32 32 33 33 33 33 33 32 31 31 31 31 31 30 28 27 26 25 25 24 23 22 21 21 20 20 19 18 17 16 16 15 15 16 16 16 15 15 15 14 14 13
31 31 31 32 31 32 31 31 31 31 30 30 30 30 29 28 27 26 25 24 24 23 22 21 20 20 20 19 19 18 17 16 16 16 15 15 15 15 15 14 14 13 12 11
31 31 31 31 31 30 30 30 30 30 30 30 29 28 27 25 24 23 23 23 22 22 21 21 21 20 20 19 18 18 17 17 16 15 15 15 15 15 14 13 13 11 10 10
30 30 30 30 29 29 29 29 29 29 29 28 28 26 25 24 23 23 23 23 22 22 21 21 21 20 19 18 18 18 19 18 17 15 15 15 14 14 14 13 13 12 11 10
29 29 29 28 28 28 28 29 29 28 27 27 26 25 24 23 23 23 22 22 22 21 21 20 20 19 19 18 18 19 19 18 16 16 15 15 14 14 13 12 12 12 11 10

GEFSNGP_500_meanwind_228.txt.gz
Wind_Speed
15 14 15 16 17 16 17 18 19 20 21 21 23 24 25 26 26 26 27 25 26 26 26 26 26 26 27 26 26 26 25 25 24 24 23 23 23 22 22 22 23 23 22 22
16 15 15 16 16 16 16 17 19 20 22 22 22 24 26 26 27 27 27 26 28 26 26 26 26 27 26 26 26 26 25 25 24 23 23 23 22 21 21 22 22 22 21 22
15 15 16 16 16 17 18 18 20 21 23 23 23 24 24 24 25 26 26 26 27 27 26 27 27 27 27 26 26 26 26 25 24 24 23 22 21 21 22 22 22 22 22 22
18 17 17 17 17 18 19 20 21 22 22 22 22 23 24 25 26 26 27 26 27 27 27 27 27 27 27 26 26 26 25 24 23 23 23 22 22 22 22 23 23 23 23 22
18 18 19 18 19 19 20 22 22 22 22 23 24 24 25 25 26 27 27 26 27 27 27 27 27 27 26 26 26 25 24 24 24 23 23 23 23 23 23 23 23 23 22 21
19 19 19 19 21 21 22 24 24 23 23 23 24 25 25 26 26 27 27 27 27 27 27 27 28 27 27 27 26 26 25 25 25 24 24 24 24 23 22 22 22 21 20 20
19 20 20 22 23 23 24 25 25 24 24 25 25 26 26 26 26 27 28 28 27 27 27 28 28 27 27 26 26 26 26 26 25 25 25 24 24 22 22 22 21 20 20 20
21 21 22 24 24 24 25 25 26 25 25 26 26 26 26 26 27 28 28 28 27 28 28 27 27 27 26 26 26 26 26 26 25 25 25 24 23 22 21 21 21 21 20 20
25 25 24 25 26 26 26 27 27 26 26 26 26 26 27 27 27 28 28 28 27 28 27 27 26 26 26 25 25 25 26 25 25 25 25 24 23 22 21 21 20 20 20 20
27 26 26 26 27 26 27 27 27 27 27 27 27 27 27 27 27 28 28 28 27 27 27 27 27 26 26 25 25 25 25 25 26 26 25 24 22 21 20 20 20 19 19 19
28 28 27 27 27 27 28 28 27 27 28 28 28 27 27 27 27 27 28 28 27 27 27 27 26 26 26 25 25 25 25 26 26 26 24 23 22 21 20 19 19 19 19 19
29 28 29 28 29 28 28 28 28 28 28 28 28 28 28 27 27 27 28 28 28 28 27 27 27 27 27 26 26 26 26 27 26 25 24 22 21 20 20 20 19 19 19 18
30 29 30 28 29 28 29 29 29 29 29 29 29 29 28 28 28 28 28 28 28 28 28 28 28 27 27 27 27 27 26 26 25 24 23 21 21 21 20 19 19 18 18 17
31 30 29 30 29 29 30 30 30 30 30 30 30 30 29 29 28 28 29 29 29 29 29 29 29 28 28 27 27 26 26 25 24 23 22 21 21 20 20 19 18 18 18 17
31 31 30 31 31 31 31 31 31 30 30 30 31 31 30 30 30 30 30 30 31 31 30 30 30 29 29 29 28 27 26 25 24 23 22 21 20 20 19 19 19 18 18 18
32 31 31 31 32 32 32 32 32 31 32 32 32 31 31 31 31 31 31 31 32 31 31 31 30 30 29 29 28 26 25 25 24 23 22 22 20 20 20 20 19 18 18 18
32 32 31 32 32 33 33 33 33 32 32 32 32 31 31 31 31 31 32 32 32 31 31 30 30 30 29 28 26 26 25 24 24 23 22 21 21 21 20 19 18 18 18 18
33 33 33 33 33 33 33 33 33 33 33 33 32 32 32 32 32 32 32 32 32 31 30 30 29 28 27 26 25 25 24 24 23 22 21 21 21 21 20 19 18 18 18 17
34 34 33 34 34 33 34 34 34 34 33 33 33 33 33 33 32 32 32 32 31 30 29 29 28 27 25 25 24 24 24 22 22 21 21 21 21 20 20 19 19 18 17 17
34 34 34 34 34 34 34 34 33 33 33 33 33 33 33 32 32 32 31 31 30 29 28 27 26 25 24 24 23 23 22 21 21 21 21 20 20 19 19 19 19 18 17 17
33 33 33 33 34 34 34 33 33 33 33 33 33 33 32 32 31 31 30 30 29 28 28 27 26 25 24 24 23 22 21 21 20 20 20 19 19 19 19 19 18 17 17 16
32 32 33 33 33 33 34 34 34 33 32 32 31 30 30 29 29 29 29 28 28 27 26 26 25 24 24 23 22 22 21 20 20 20 20 18 18 19 18 17 16 15 14 14
32 32 32 32 32 33 33 33 33 32 31 30 29 29 28 29 29 28 27 27 26 25 24 24 23 23 23 22 22 21 20 20 19 19 19 18 18 18 17 16 16 15 14 13
31 31 32 32 32 32 32 32 32 31 30 30 30 29 28 27 27 27 26 25 24 24 23 22 22 22 21 21 21 20 20 19 19 19 18 18 18 17 16 16 15 15 14 13
31 31 31 31 31 31 31 31 30 30 30 30 29 28 28 27 26 26 25 25 23 22 22 22 21 21 21 21 21 20 20 20 19 18 18 18 17 16 16 15 15 14 13 12
32 31 31 31 31 30 30 30 29 29 29 28 28 27 27 27 26 26 25 24 23 23 22 22 21 21 21 20 20 19 19 19 19 18 18 18 17 16 15 15 15 14 13 13
31 31 31 31 30 30 29 29 28 28 28 27 27 26 26 26 25 24 24 24 23 23 22 22 22 22 21 21 20 20 20 19 19 19 18 18 17 16 15 16 15 14 13 12

GEFSNGP_500_meanwind_234.txt.gz
Wind_Speed
15 15 16 16 15 16 17 19 20 20 21 19 19 20 20 21 21 22 22 22 23 24 23 23 25 25 26 26 26 26 26 24 24 24 24 23 22 22 22 22 23 22 22 23
16 16 17 16 16 16 17 18 19 20 19 19 21 21 21 21 22 22 23 24 24 24 25 25 26 26 27 27 26 26 25 24 24 24 24 23 23 23 24 24 24 23 22 22
18 17 17 17 16 17 18 18 19 20 20 20 21 21 21 22 23 24 24 25 24 24 25 27 28 27 27 26 26 25 25 24 24 24 24 24 25 25 25 25 24 23 23 23
19 18 18 17 17 18 17 18 19 20 21 21 21 22 22 23 23 23 24 24 24 25 27 27 27 27 26 26 26 26 25 25 24 25 25 26 27 26 26 24 24 24 24 24
20 19 19 17 18 18 18 19 19 20 21 21 21 22 23 23 23 23 24 24 26 27 28 28 28 27 27 27 27 26 26 26 26 26 26 26 26 26 25 24 24 24 23 23
20 21 20 19 19 19 20 20 20 20 21 21 22 23 23 23 24 25 25 26 27 28 28 28 28 28 28 27 27 27 27 27 27 27 27 26 26 25 24 23 23 23 22 22
21 22 21 20 20 20 21 20 21 21 22 22 22 22 23 24 25 26 26 27 28 28 28 28 28 28 27 27 26 26 27 27 27 27 27 26 25 24 23 22 21 21 21 20
23 24 23 22 22 22 22 21 21 22 23 23 23 24 25 26 27 26 27 27 27 27 27 28 28 27 27 27 26 27 27 26 26 26 26 25 24 24 22 21 20 20 20 19
25 24 24 23 23 23 22 23 23 23 24 24 24 25 26 27 28 27 27 27 27 27 27 28 28 28 28 27 27 27 26 26 26 25 24 24 24 23 21 20 20 19 19 18
25 25 24 24 24 24 24 24 25 25 25 25 26 27 27 27 27 27 27 27 27 27 28 28 27 27 27 27 27 26 26 26 25 25 24 24 23 22 21 20 19 19 18 18
25 24 24 25 25 25 26 26 27 27 27 27 26 26 26 27 27 27 27 27 27 27 28 28 27 27 27 27 26 26 26 26 26 26 25 23 23 22 21 20 19 19 18 17
26 25 25 26 26 27 28 28 27 27 28 27 26 25 26 26 27 27 27 27 28 28 28 28 27 28 28 28 27 27 27 26 26 25 24 23 22 21 21 21 20 19 18 18
27 27 27 27 27 27 27 28 28 28 27 26 25 26 26 27 27 27 27 28 28 28 28 28 28 28 28 27 27 27 27 26 25 24 24 23 22 21 20 21 20 19 18 18
29 28 28 28 28 28 27 28 28 28 27 27 27 26 26 27 27 27 27 28 28 28 28 28 29 29 28 28 27 27 26 26 25 24 23 22 21 20 20 20 20 18 17 17
29 29 28 29 29 28 28 28 29 29 28 28 27 26 26 27 27 27 28 28 28 28 28 29 29 29 28 27 27 26 26 25 24 23 22 21 21 20 21 21 20 19 17 17
29 29 29 29 29 29 29 29 29 29 29 28 27 27 27 27 27 27 28 28 28 28 28 29 29 28 28 27 26 26 25 25 24 23 22 21 21 20 20 20 19 18 17 16
29 30 30 29 30 30 30 29 29 28 28 28 28 28 28 28 28 28 28 28 28 29 29 29 28 28 28 27 27 26 25 24 23 23 23 22 21 20 20 20 19 17 17 17
29 29 30 30 29 30 30 30 29 27 28 28 28 29 29 28 29 29 28 29 30 30 30 29 29 29 28 27 27 26 24 24 23 23 22 21 20 20 20 19 18 18 18 17
30 30 31 31 30 29 29 29 29 29 29 29 29 29 29 29 29 29 29 30 30 30 29 29 29 28 27 26 26 25 24 23 23 23 21 19 18 18 18 18 18 17 16 16
30 31 31 31 31 30 30 30 30 30 29 29 30 30 30 29 29 29 30 30 29 29 28 28 28 27 26 25 25 24 23 22 22 21 19 18 17 17 17 17 17 15 14 15
30 31 31 30 30 31 31 31 30 30 29 29 30 30 30 29 29 29 29 29 28 27 27 26 26 25 24 23 22 22 22 22 22 20 19 18 18 18 18 18 16 15 15 16
30 31 31 30 30 30 30 30 30 30 30 30 30 30 30 29 28 28 28 27 26 26 25 25 24 23 22 22 21 20 21 21 20 19 18 17 18 18 17 16 15 15 15 16
29 29 29 29 30 30 29 30 30 30 30 29 30 29 28 28 28 27 26 25 25 24 24 23 22 22 22 21 20 20 20 20 20 18 17 17 17 18 17 16 16 15 15 15
28 29 28 29 29 29 29 29 29 30 30 29 29 28 28 27 26 26 25 24 23 23 23 22 21 21 21 21 20 20 20 20 20 18 18 17 17 17 17 17 17 16 16 15
28 29 30 30 30 30 30 30 30 30 29 28 27 27 27 27 27 27 26 24 24 23 23 22 21 20 21 21 21 21 21 20 19 19 18 18 17 17 16 16 16 16 15 14
29 29 29 29 30 30 30 30 30 30 29 28 27 27 27 27 27 27 26 25 24 23 22 22 22 22 22 22 22 21 20 20 19 19 18 17 17 17 16 15 15 15 14 13
28 28 27 27 27 28 28 28 28 28 27 27 26 26 26 26 26 25 25 24 23 23 23 22 23 23 23 22 22 21 21 20 19 18 17 17 16 16 15 15 14 14 13 13

GEFSNGP_500_meanwind_240.txt.gz
Wind_Speed
22 22 22 22 22 21 21 20 21 20 20 19 19 19 18 19 20 21 21 21 21 22 22 22 23 23 24 25 25 25 25 24 24 24 24 24 24 24 24 23 24 24 25 24
22 22 22 22 20 20 20 20 20 20 19 18 19 19 19 20 21 20 20 20 21 21 22 22 23 24 24 25 26 26 26 26 25 25 25 25 25 25 25 25 24 25 25 25
23 23 23 21 20 20 20 20 20 20 19 19 19 19 20 20 20 20 21 21 21 21 22 23 23 24 25 26 26 27 26 26 26 26 25 25 26 25 25 25 25 25 24 24
23 23 24 21 20 20 20 20 20 21 21 21 21 21 21 21 21 22 23 23 23 23 23 24 24 25 26 27 27 27 27 27 27 26 26 26 26 26 25 24 25 25 24 24
25 25 24 23 22 22 22 21 20 21 22 22 22 22 22 22 22 23 24 24 24 25 25 25 25 26 26 27 28 28 28 27 27 26 26 27 26 26 25 25 25 25 24 23
25 25 25 24 23 23 24 23 22 22 22 22 23 23 23 23 23 24 24 25 25 26 26 26 26 26 27 28 27 28 28 28 27 27 26 26 26 26 25 25 25 25 23 23
25 25 24 23 23 24 24 24 24 24 23 24 24 24 24 24 25 25 26 26 26 26 26 26 26 26 27 28 28 28 28 28 28 27 27 26 26 26 25 24 24 23 23 22
24 25 24 24 24 24 24 24 24 25 25 24 24 24 24 25 25 25 26 25 26 27 27 28 27 27 27 28 28 28 28 28 28 27 27 27 26 26 25 24 22 22 22 22
25 24 25 25 24 25 25 25 25 25 26 26 26 25 25 25 25 26 26 26 26 27 28 28 27 27 28 28 28 28 28 28 28 27 28 27 26 25 24 23 23 23 22 22
26 26 26 26 27 26 26 26 26 26 26 27 27 26 26 26 26 27 26 26 27 27 27 27 26 26 27 28 27 27 28 28 29 28 28 27 26 25 24 24 23 23 22 21
27 27 27 27 28 28 27 27 27 27 27 27 27 26 26 27 27 27 27 27 27 27 27 26 26 27 28 28 27 28 29 29 29 28 28 27 26 25 24 23 23 22 22 22
28 28 28 28 28 28 29 29 29 28 28 28 27 27 26 26 27 27 27 27 26 26 26 27 26 27 27 28 29 29 29 28 28 28 27 26 25 24 24 23 23 23 22 21
30 30 29 28 29 28 28 28 28 28 27 27 27 27 26 26 26 26 26 26 26 26 27 27 28 28 28 29 29 29 28 28 27 27 26 26 25 25 24 23 23 23 21 20
31 31 30 29 29 29 28 28 28 27 27 26 26 26 26 26 26 27 27 27 27 27 28 28 29 29 29 29 28 28 28 27 27 26 26 26 26 25 24 23 22 22 21 20
30 31 30 29 29 28 27 27 27 26 27 27 27 27 27 27 26 27 27 27 27 28 29 29 29 29 29 29 28 28 28 27 27 27 27 26 26 25 24 22 22 21 20 20
30 31 30 30 28 27 27 28 27 26 26 27 28 29 28 28 27 27 27 27 28 28 29 29 29 29 29 28 28 28 27 27 27 27 27 26 26 25 23 22 21 20 19 19
30 29 29 28 28 28 27 27 27 26 27 28 28 28 28 28 27 27 27 27 27 28 28 29 29 28 28 27 27 27 26 26 26 26 26 26 25 24 22 21 20 19 19 18
29 29 28 28 28 28 28 28 28 28 28 28 28 28 27 27 27 27 26 26 27 27 28 28 28 28 27 27 27 26 26 26 26 26 26 26 24 23 21 20 19 19 19 19
28 28 28 28 28 29 29 29 29 29 29 29 29 27 26 26 26 26 26 27 27 28 28 27 27 27 27 27 26 26 26 26 25 25 24 23 22 21 20 20 19 20 19 19
28 29 28 28 28 29 29 29 29 30 30 29 28 27 26 26 26 26 27 27 27 28 27 26 26 26 26 26 26 25 25 25 24 23 22 22 21 20 19 18 18 18 18 18
28 28 28 28 29 29 30 30 30 30 29 28 27 27 26 26 27 27 27 26 26 26 26 26 26 26 25 24 24 24 24 23 22 21 21 20 20 20 19 17 17 17 17 17
28 29 29 29 30 30 30 30 30 30 29 28 28 28 28 27 27 27 27 26 26 26 26 26 26 25 25 24 24 24 23 23 22 22 21 20 20 19 18 17 16 16 16 16
28 28 29 29 29 29 29 30 30 29 29 29 29 29 28 28 28 28 27 26 26 26 26 26 25 25 25 25 24 24 23 23 22 22 21 21 20 19 18 18 18 17 17 17
27 28 28 28 28 28 28 28 29 28 28 28 28 29 29 28 28 28 27 26 26 26 26 25 25 26 26 25 25 24 23 23 22 22 22 21 21 20 19 19 18 18 17 17
25 25 26 26 27 27 28 28 28 28 28 29 29 29 29 28 27 27 27 27 27 26 26 27 27 26 26 25 25 24 24 23 21 21 21 21 20 19 19 18 17 17 17 17
25 25 26 26 27 28 28 28 29 29 29 29 29 29 28 27 28 28 27 27 27 27 26 26 26 27 26 25 25 24 23 22 21 21 21 20 20 19 18 17 17 16 17 18
25 26 27 28 28 29 29 29 29 29 29 29 29 29 29 29 28 28 27 26 26 26 26 26 26 26 25 24 24 23 22 21 21 20 20 19 19 18 18 17 17 17 17 17

GEFSNGP_500_meanwind_246.txt.gz
Wind_Speed
19 19 20 20 20 20 20 20 20 20 20 20 20 20 20 19 19 19 18 18 18 19 19 20 21 20 20 21 21 21 22 22 23 23 23 23 23 24 25 25 24 24 23 24
21 21 21 22 22 21 21 21 21 21 21 20 20 20 20 19 19 19 18 18 19 19 20 20 20 20 21 22 22 22 22 22 23 23 23 24 24 25 25 25 25 24 24 24
22 22 23 24 22 22 22 22 21 21 21 21 20 19 19 19 19 19 19 19 20 21 21 21 20 21 21 22 22 23 23 23 23 23 24 24 25 25 25 25 25 25 24 24
23 23 24 23 22 23 23 22 22 22 22 21 20 19 19 20 20 20 20 21 22 21 21 21 21 21 22 22 22 23 24 24 24 24 24 25 26 26 25 25 25 25 24 24
22 23 24 23 22 23 23 23 22 22 22 21 20 20 21 21 22 22 22 23 23 22 22 22 22 22 23 23 24 24 25 25 24 25 25 26 26 26 26 25 25 25 25 24
22 22 23 23 23 23 23 23 22 21 21 21 21 21 22 23 23 24 23 23 23 23 23 23 23 23 23 23 23 24 24 24 25 26 26 26 26 26 25 24 24 24 25 24
24 24 24 24 23 22 22 22 22 22 21 22 22 23 24 24 24 24 24 24 24 24 24 23 22 22 22 23 23 24 25 26 26 26 26 26 26 25 25 24 23 23 23 24
24 24 24 24 23 22 22 23 23 23 23 23 23 23 24 24 24 24 24 24 24 23 23 22 22 22 23 23 24 25 26 26 26 27 26 26 26 25 24 24 23 23 23 23
25 25 25 24 24 24 23 23 23 24 24 24 24 23 24 24 24 24 24 24 23 23 23 23 23 23 24 25 25 25 26 27 27 27 26 26 26 26 25 24 23 23 23 23
26 26 26 25 25 25 24 24 24 24 24 25 24 24 24 24 24 24 24 24 24 24 24 24 24 25 25 26 25 26 26 27 27 27 27 26 26 25 24 23 23 22 22 22
27 27 27 26 26 26 25 25 24 25 25 25 25 24 24 25 25 25 24 24 24 24 25 25 25 25 25 26 26 26 27 27 26 26 27 26 25 24 23 23 22 21 21 21
27 27 27 27 27 27 26 25 25 24 24 24 24 24 25 25 25 25 25 25 25 25 25 25 26 26 26 26 27 27 28 27 27 27 27 26 25 25 24 24 22 20 20 20
28 28 28 28 27 27 27 26 26 25 24 24 25 25 25 26 26 26 26 26 26 26 26 26 27 27 27 27 28 28 29 29 28 28 28 27 26 26 25 24 23 21 21 20
27 28 28 28 28 28 27 27 27 26 26 25 25 25 25 26 26 26 26 26 27 27 27 27 27 28 28 28 29 29 29 29 29 28 28 27 27 27 25 24 23 22 21 21
26 27 28 28 28 28 28 27 27 26 26 26 26 26 26 26 26 26 26 27 27 27 27 27 27 27 27 28 28 29 29 28 28 28 28 28 28 26 26 24 22 21 21 21
26 26 27 28 28 28 28 28 27 27 27 27 26 26 27 27 26 27 27 27 27 27 27 27 27 27 28 27 28 28 28 28 28 27 28 27 26 25 24 22 22 21 21 20
25 25 26 27 27 28 28 28 27 26 27 27 27 27 27 27 27 27 27 27 27 27 27 27 27 27 27 27 27 27 28 27 27 26 26 25 24 23 22 21 21 20 19 19
25 25 26 26 26 26 26 26 27 27 27 27 27 28 28 28 28 27 27 27 27 27 27 27 27 27 27 27 27 27 26 26 25 25 25 24 23 22 20 19 19 18 18 18
25 24 24 25 26 27 27 27 28 28 28 29 29 28 28 27 28 28 27 27 27 27 27 27 27 27 27 27 27 26 26 25 25 24 23 22 21 20 19 18 18 18 18 19
24 24 24 25 25 26 27 27 27 27 28 28 27 27 28 28 27 27 27 27 27 27 27 27 27 28 27 27 26 26 25 25 24 23 22 22 20 19 18 18 18 18 19 19
24 24 24 25 25 25 26 26 27 27 27 27 26 27 27 27 27 27 27 27 28 28 28 28 28 28 27 26 26 26 25 24 24 23 22 21 20 19 18 18 18 18 19 19
24 24 25 25 25 26 27 27 27 27 27 27 27 26 26 27 27 27 28 28 28 28 28 28 27 27 26 26 26 25 25 24 23 23 22 21 20 19 18 18 18 18 19 19
23 23 24 25 25 26 27 27 28 28 28 28 27 27 27 27 27 28 28 28 28 27 27 27 26 26 26 26 26 25 25 24 23 22 21 20 20 19 19 19 19 19 19 19
22 23 24 25 26 26 26 27 27 27 27 27 27 27 28 27 27 27 28 28 28 27 26 26 26 26 26 26 26 25 24 23 22 21 21 21 20 19 19 19 19 19 19 19
22 23 24 24 24 24 24 24 24 25 25 26 27 27 27 27 27 27 26 26 26 26 26 26 26 26 25 25 25 25 24 23 22 22 22 22 21 20 20 20 20 19 19 18
21 21 22 22 23 22 23 23 24 24 25 25 26 26 26 26 26 26 26 26 25 25 25 25 25 25 25 25 25 24 23 23 22 22 22 22 21 20 20 19 19 19 19 18
20 20 20 21 22 22 23 24 24 23 23 24 24 25 26 26 26 25 24 24 25 26 26 26 25 25 25 25 25 24 23 22 22 22 22 22 21 21 20 20 19 18 18 18

GEFSNGP_500_meanwind_252.txt.gz
Wind_Speed
22 21 22 23 21 22 22 22 22 23 23 23 25 24 24 24 24 24 23 24 23 22 23 23 23 22 22 22 22 22 22 23 24 24 24 24 24 25 25 26 26 26 27 27
23 22 22 23 22 22 22 22 23 24 25 24 25 25 24 24 24 23 23 24 24 23 23 23 23 22 22 22 22 23 23 23 24 24 24 25 25 25 26 26 26 26 27 26
24 21 22 24 22 22 23 24 24 25 26 26 26 25 24 23 24 23 24 23 23 23 23 23 23 22 22 23 23 23 24 24 25 25 25 26 25 26 26 26 26 26 26 27
24 22 24 22 21 22 24 26 25 24 25 26 26 25 25 25 25 24 24 23 24 24 23 23 23 23 23 23 24 24 24 24 24 25 26 26 26 26 26 26 27 27 27 26
24 23 23 21 21 22 24 25 25 25 25 25 26 26 25 24 24 24 24 24 24 25 24 24 23 23 23 24 23 24 24 25 25 26 27 26 26 26 26 27 27 27 27 26
24 24 24 23 23 23 24 26 26 26 26 26 27 26 26 24 24 25 25 25 25 25 24 23 23 23 24 23 23 24 25 25 26 27 27 27 27 27 27 27 27 27 26 27
25 26 26 26 25 24 25 26 26 27 28 28 27 26 25 25 25 26 26 25 25 25 24 23 23 23 23 23 23 24 25 26 27 28 28 27 27 28 28 27 27 27 26 26
27 28 27 26 27 27 27 26 26 27 27 27 27 26 26 26 25 26 26 25 24 24 24 23 24 24 24 23 24 25 26 27 28 28 28 28 28 28 28 27 27 27 27 27
28 30 30 29 28 28 28 27 27 27 27 27 27 27 26 25 25 24 24 24 25 25 25 24 24 24 24 24 25 25 27 27 27 27 27 28 28 29 29 28 28 27 27 26
30 30 30 30 30 30 29 28 28 28 28 28 28 28 26 26 24 24 24 24 25 25 25 24 23 23 24 24 25 25 26 26 26 26 27 28 28 29 28 28 28 27 26 26
31 30 30 29 30 29 29 28 28 28 29 29 28 27 27 26 25 24 24 25 25 26 25 24 23 24 25 25 25 26 26 26 27 27 28 28 29 29 28 28 28 27 27 27
32 32 32 31 31 30 29 28 27 28 29 29 28 28 27 26 26 26 25 26 26 26 25 25 25 25 25 25 26 26 26 26 27 28 29 30 30 30 28 28 27 27 27 27
32 33 33 32 32 31 29 28 28 28 28 28 27 27 26 26 26 26 26 26 27 26 26 26 26 26 26 26 26 26 27 28 29 29 30 30 30 30 29 28 26 25 26 26
31 32 32 31 31 31 30 29 28 28 28 28 27 27 27 27 27 27 27 27 27 27 27 27 27 26 26 26 26 27 28 29 29 30 30 30 29 28 27 26 25 26 26 26
30 30 29 29 29 29 29 29 29 29 28 28 28 28 28 28 27 27 28 28 27 27 28 27 27 27 27 27 27 27 27 28 29 29 29 29 28 27 25 25 25 25 24 24
28 29 29 29 29 29 29 29 29 29 29 29 29 28 28 28 29 28 28 28 28 28 28 28 27 26 26 26 26 27 27 28 29 29 28 28 27 26 25 24 23 23 23 22
27 27 28 29 29 29 29 30 30 30 30 30 30 30 30 29 29 29 29 29 29 28 27 27 27 26 26 26 27 28 28 28 29 29 28 27 26 25 24 23 23 23 22 22
27 28 29 29 29 30 30 30 30 30 30 30 30 30 29 29 29 29 28 28 28 28 27 27 27 26 27 27 28 28 28 28 28 28 27 27 26 25 24 24 23 22 22 22
28 28 28 28 29 29 29 30 29 29 29 29 29 28 28 28 28 28 28 28 27 27 27 28 27 27 28 28 28 28 28 28 28 28 27 26 25 25 25 24 23 22 22 21
26 27 28 28 28 28 28 28 28 28 27 27 27 27 27 28 28 28 28 28 29 29 28 28 28 28 28 29 29 29 28 27 27 27 26 25 25 24 24 23 22 21 21 22
25 25 26 26 26 27 27 27 26 26 26 26 27 27 27 27 27 27 28 28 28 28 27 27 27 27 28 28 28 28 27 26 26 26 26 25 25 24 23 22 21 21 21 22
24 24 25 25 26 25 26 25 25 25 25 25 25 26 26 26 26 26 27 27 27 27 27 27 27 27 27 27 27 27 26 26 26 26 25 24 24 23 22 21 21 21 21 22
23 23 24 24 24 24 24 24 24 24 24 24 24 25 25 25 25 26 26 26 27 26 26 27 27 27 26 26 26 26 26 26 25 25 24 23 23 22 22 21 21 21 22 22
22 22 22 22 22 22 23 23 23 24 24 24 24 24 24 25 25 26 26 26 26 26 26 26 26 26 26 26 26 26 25 25 24 24 23 22 22 22 22 22 22 22 22 22
22 22 22 22 22 22 22 23 23 23 24 25 24 24 24 24 25 25 25 25 26 26 26 26 25 25 25 24 24 25 24 23 23 22 22 21 22 22 22 22 22 22 22 22
21 21 21 22 22 22 22 22 22 23 24 24 24 23 23 23 23 24 24 24 24 24 24 24 24 23 23 23 23 23 23 22 22 21 21 21 22 22 21 21 22 22 21 21
21 21 21 21 21 22 22 23 23 23 23 24 24 24 24 23 23 23 24 23 23 23 23 23 22 21 21 22 22 22 23 23 23 22 22 22 22 22 22 22 21 21 21 22

GEFSNGP_500_meanwind_258.txt.gz
Wind_Speed
25 24 25 25 25 26 27 28 29 27 26 26 25 23 23 23 21 20 21 23 22 23 24 24 25 24 23 23 23 23 23 22 22 22 22 22 22 22 22 23 23 24 24 24
26 26 27 27 27 27 27 27 27 26 25 25 24 23 23 23 22 22 23 23 23 23 22 23 23 23 22 22 22 22 23 23 22 21 22 22 22 23 23 24 24 24 25 25
26 26 26 26 25 26 25 24 25 26 25 24 24 23 23 22 23 23 24 24 23 22 23 23 22 21 21 21 22 22 22 22 22 23 23 23 23 24 25 25 25 25 25 26
27 26 28 25 24 25 25 25 26 26 25 24 23 23 23 23 23 23 23 23 22 23 24 23 22 22 23 23 22 23 22 23 23 24 24 24 25 25 25 26 25 26 26 26
27 27 27 25 25 25 24 25 25 25 24 24 22 22 22 22 23 23 23 23 23 23 23 23 23 23 23 23 22 22 22 23 23 24 25 24 24 25 25 26 26 27 28 27
27 28 27 25 25 25 26 27 25 25 25 24 24 24 23 23 23 23 24 24 24 23 23 23 23 23 23 22 22 22 22 23 24 24 24 24 25 26 26 27 27 27 27 27
28 28 28 26 26 25 26 25 25 24 24 24 23 23 23 23 24 24 24 24 24 24 23 24 24 24 24 24 24 24 24 24 24 24 24 25 26 26 27 27 27 27 26 26
28 29 28 25 25 25 25 25 25 23 23 23 23 23 24 25 25 25 25 25 25 24 24 24 24 24 24 25 24 25 25 25 24 24 24 25 26 27 27 27 27 27 26 26
27 27 26 25 24 25 26 26 25 24 24 24 23 23 24 24 25 26 26 26 26 25 25 25 25 25 25 25 25 25 25 25 25 24 25 25 26 27 27 26 26 26 26 26
28 27 26 26 25 26 26 26 26 25 25 26 25 25 25 26 27 28 28 28 27 26 26 26 26 25 26 25 25 25 25 26 25 25 26 26 26 27 26 26 25 25 25 25
28 27 27 27 27 27 28 27 27 27 26 26 26 26 27 28 29 29 29 28 27 26 27 27 27 26 26 26 26 26 26 26 26 26 26 26 26 26 26 26 26 25 25 25
28 27 26 26 27 28 28 28 28 27 27 26 27 28 28 29 29 29 28 27 27 27 27 26 27 26 26 26 26 25 25 26 26 26 26 26 26 26 26 26 26 25 25 25
28 28 28 27 26 27 28 28 28 28 27 27 27 28 29 28 27 27 26 26 26 26 26 25 25 26 26 26 26 25 26 26 26 26 26 27 27 26 25 25 24 25 26 26
27 27 27 28 28 27 28 28 27 27 26 26 27 27 27 26 26 26 26 26 25 25 25 26 26 26 27 27 27 27 27 26 26 26 27 27 27 26 25 24 24 24 24 24
26 26 27 27 27 27 27 26 26 26 26 26 26 26 25 25 25 26 25 25 25 25 26 27 28 27 27 27 27 27 27 26 26 26 26 26 26 25 25 24 24 23 23 23
25 25 25 25 25 25 26 25 25 25 25 26 25 26 26 26 26 26 26 26 26 26 26 27 26 26 26 26 26 26 26 26 26 26 26 26 25 25 24 24 23 23 23 22
24 24 23 23 24 25 25 25 26 27 27 26 26 25 26 26 26 26 26 26 26 25 25 26 25 25 26 26 27 26 26 27 27 27 27 26 26 25 24 24 24 24 23 23
22 23 23 24 24 24 25 25 26 27 26 26 26 26 26 26 26 26 26 27 27 27 26 26 26 26 26 26 26 26 26 27 27 27 26 25 25 24 24 24 24 23 22 22
21 22 23 25 26 26 26 26 26 27 27 27 27 27 27 26 26 25 25 26 25 26 26 25 25 25 25 26 26 26 26 26 26 26 26 25 24 24 24 23 23 22 22 21
20 21 22 24 25 26 26 26 26 27 26 25 25 25 24 24 24 24 25 25 26 26 25 24 24 25 25 25 25 26 25 25 25 25 25 25 24 23 23 23 22 21 21 21
20 20 21 22 23 24 25 25 25 24 24 24 24 24 24 24 24 24 24 24 25 25 24 24 23 23 24 24 24 25 24 24 23 23 23 23 23 23 22 22 22 22 22 22
20 20 21 21 22 23 24 24 24 23 23 23 23 24 24 24 24 24 24 24 24 24 24 23 23 23 23 24 23 23 22 22 22 22 22 22 22 22 22 22 22 22 22 22
21 22 22 22 22 22 22 23 23 23 22 22 23 23 23 23 24 23 23 22 22 23 23 23 23 23 23 23 22 22 22 22 21 22 22 22 22 22 22 22 22 22 22 22
21 21 22 22 22 22 22 22 22 22 22 22 22 22 22 22 23 22 22 22 23 23 23 22 22 22 22 21 21 21 21 21 21 21 22 22 23 22 22 22 22 22 21 21
20 21 21 21 21 21 21 20 21 21 21 21 21 21 21 22 22 22 21 21 22 21 21 21 21 20 20 20 20 21 21 21 21 22 22 22 22 22 22 22 22 21 20 20
20 21 21 20 20 20 20 20 21 21 21 21 21 20 21 21 21 21 21 21 21 21 21 21 21 21 20 20 20 21 21 21 21 22 22 22 22 22 22 22 21 20 20 20
20 19 19 19 19 19 19 20 20 20 20 21 21 21 20 19 19 19 19 19 19 20 20 21 21 20 20 21 21 21 21 21 21 21 21 21 21 21 20 21 20 20 19 20

GEFSNGP_500_meanwind_264.txt.gz
Wind_Speed
25 24 25 26 25 25 26 27 28 28 27 26 26 25 24 24 23 23 22 21 21 22 22 22 22 23 22 22 23 22 23 24 24 25 25 25 25 25 26 26 26 26 27 27
25 25 26 27 26 26 26 27 28 28 27 26 26 25 24 24 23 23 22 22 22 23 23 23 23 23 22 23 23 23 23 24 23 24 25 25 25 25 26 27 27 27 26 26
25 25 27 28 26 26 27 27 28 28 27 26 25 24 25 24 23 22 23 22 22 23 24 24 23 23 23 23 24 24 24 23 23 23 23 24 24 25 25 26 26 25 25 25
27 26 28 26 26 27 27 28 27 27 26 26 25 24 25 24 23 22 23 24 23 23 24 24 24 24 24 24 24 24 24 24 24 24 24 25 25 25 26 25 25 25 24 24
27 28 28 27 27 27 28 27 27 26 25 25 25 24 25 24 23 23 23 24 24 24 24 24 25 25 25 25 25 25 25 25 25 25 25 25 25 26 25 25 24 24 24 24
27 28 28 27 27 28 29 28 27 27 26 25 25 24 24 23 23 23 24 24 23 23 23 23 24 24 25 25 25 26 26 26 26 26 26 25 26 25 25 25 25 24 24 24
27 28 29 27 27 28 29 28 27 26 26 26 26 25 24 24 23 23 24 23 24 23 24 24 24 24 24 25 25 26 26 26 26 26 25 26 26 26 26 26 25 25 25 25
28 28 29 27 27 28 27 27 27 26 26 26 26 26 25 24 23 23 23 24 23 23 23 23 23 24 25 25 25 25 26 26 25 26 26 26 26 26 26 26 26 26 27 27
28 28 28 28 28 27 27 27 27 27 27 27 27 26 26 24 24 24 24 23 23 23 23 23 24 25 25 25 25 25 25 25 25 25 25 25 25 26 27 27 27 27 27 27
28 27 28 28 29 29 28 27 27 27 26 26 27 27 27 26 26 26 26 25 25 25 25 26 26 26 26 25 25 24 24 24 25 24 24 24 25 27 28 28 28 27 26 26
27 27 27 28 29 29 28 28 27 27 26 26 27 26 26 27 27 27 27 26 27 27 26 26 26 26 25 25 25 24 24 24 25 24 25 25 26 27 27 28 27 26 25 25
26 27 27 27 27 27 27 27 26 26 26 26 26 27 27 27 27 27 27 27 27 27 27 27 27 26 25 26 26 26 26 26 26 26 26 26 26 26 26 26 25 24 24 24
26 26 26 27 26 26 25 24 24 25 26 26 26 26 26 26 26 26 27 27 26 26 27 27 27 26 26 27 27 27 27 27 27 27 26 26 25 25 25 25 25 25 25 26
25 26 26 26 26 26 26 25 24 24 25 26 26 26 25 25 25 25 26 26 26 27 27 27 27 26 27 27 26 26 26 26 26 25 25 25 25 25 26 25 25 25 26 26
24 23 23 24 24 25 25 25 25 24 24 24 24 25 25 25 25 25 25 26 26 26 26 26 27 26 26 25 25 25 25 25 25 25 25 25 25 26 26 26 26 25 26 27
22 21 22 22 23 24 25 25 25 24 23 23 24 25 25 25 25 25 26 27 27 26 26 26 26 26 26 26 25 25 25 25 25 25 25 26 26 26 26 25 25 25 26 26
21 22 23 22 23 23 24 24 24 24 24 24 25 25 25 25 25 25 26 26 26 26 26 26 26 26 25 25 25 25 25 25 25 25 26 26 26 26 25 25 24 24 24 25
21 21 21 22 23 24 24 23 23 23 23 24 25 25 25 26 26 26 26 26 26 27 27 27 26 25 25 25 25 25 25 25 25 25 25 26 26 25 25 25 25 25 24 25
21 21 21 22 22 23 22 22 22 22 22 23 24 24 24 25 25 25 25 24 24 25 26 26 26 25 25 24 24 24 24 24 24 25 25 26 25 25 24 24 24 24 25 25
20 20 21 21 22 22 22 21 21 21 23 24 24 25 25 25 25 24 24 24 24 24 25 25 24 24 24 24 24 23 23 23 24 25 25 25 24 23 23 23 23 23 24 24
19 20 20 21 21 21 21 22 22 22 23 24 24 24 25 25 24 24 24 24 24 24 24 24 24 23 23 23 23 23 23 23 24 24 24 24 23 23 23 23 23 23 23 23
19 19 20 20 21 21 21 21 21 22 23 24 24 24 24 24 25 25 24 24 23 23 23 23 23 23 23 24 24 24 24 24 24 24 24 24 23 23 22 22 22 22 22 22
20 19 20 20 21 21 21 21 22 22 22 23 23 23 23 23 24 24 24 23 23 23 22 23 23 22 22 23 23 24 24 25 24 24 23 23 23 23 22 22 22 22 22 22
20 20 20 20 20 20 21 21 21 22 23 23 22 22 22 22 22 23 23 23 23 23 23 23 22 22 22 23 24 24 24 24 23 23 23 23 23 23 23 22 22 22 22 22
19 19 19 19 19 19 20 21 21 21 21 20 21 21 22 21 21 22 22 22 22 23 23 23 23 23 23 24 24 23 23 23 22 22 22 22 23 23 23 23 23 23 23 23
18 18 18 18 19 19 19 20 20 20 20 20 20 20 20 20 20 20 21 21 21 22 22 23 23 23 23 23 23 23 22 22 21 21 21 22 23 23 23 22 22 23 23 23
18 17 18 18 18 19 19 20 19 19 19 19 19 19 20 20 20 20 21 21 22 22 22 22 22 22 21 21 22 21 22 22 22 22 22 23 23 23 23 22 22 23 23 24